SR-99 : Kings River Atmospheric Data: 04/18/2019 Summary  Detailed Graphs  Station List

  Temperature     Wind Precipitation Visibility
Timestamp Air Wet
Bulb
Dew-
point
24-hr
Max
24-hr
Min
Relative
Humidity
Atmospheric
Pressure
Avg
Speed
Avg
Dir
Spot
Speed
Spot
Dir
Max
Speed
Max
Dir
  Rate Situation Start End 1 hr 3 hr 6 hr 12 hr 24 hr   Situation
Date Time °F °F °F °F °F % in Hg mph ° mph ° mph ° Y/N in/hr text Date Time Date Time in in in in in mi text
04/18/2019 12:00 AM 61.16 55.58 51.62 76.46 59.72 70.0 Not Reported 1.12 N 1.12 S 3.13 W x x Other     x x x x x 1.24 Clear
04/18/2019 12:01 AM 60.98 55.58 51.62 76.46 59.72 71.0 Not Reported 1.12 N 1.34 SW 3.13 W x x Other     x x x x x 1.24 Clear
04/18/2019 12:02 AM 60.98 55.58 51.62 76.46 59.72 71.0 Not Reported 1.12 NE 1.34 NE 3.13 W x x Other     x x x x x 1.24 Clear
04/18/2019 12:03 AM 60.98 55.58 51.44 76.46 59.72 71.0 Not Reported 1.34 NE 1.34 E 3.13 W x x Other     x x x x x 1.24 Clear
04/18/2019 12:04 AM 60.98 55.58 51.44 76.46 59.72 71.0 Not Reported 1.57 NE 1.79 NE 3.13 W x x Other     x x x x x 1.24 Clear
04/18/2019 12:05 AM 60.80 55.40 51.44 76.46 59.72 71.0 Not Reported 1.57 E 2.01 E 2.46 NW x x Other     x x x x x 1.24 Clear
04/18/2019 12:06 AM 60.80 55.40 51.44 76.46 59.72 71.0 Not Reported 1.57 E 1.79 NE 2.46 NW x x Other     x x x x x 1.24 Clear
04/18/2019 12:07 AM 60.62 55.40 51.44 76.46 59.72 71.0 Not Reported 1.79 NE 3.13 E 3.58 E x x Other     x x x x x 1.24 Clear
04/18/2019 12:08 AM 60.62 55.40 51.62 76.46 59.72 72.0 Not Reported 1.79 NE 1.79 NE 3.58 E x x Other     x x x x x 1.24 Clear
04/18/2019 12:09 AM 60.62 55.40 51.62 76.46 59.72 72.0 Not Reported 1.57 NE 2.24 N 3.58 E x x Other     x x x x x 1.24 Clear
04/18/2019 12:10 AM 60.08 55.22 51.62 76.46 59.72 73.0 Not Reported 2.01 NE 1.79 N 3.58 E x x Other     x x x x x 1.24 Clear
04/18/2019 12:11 AM 59.90 55.22 51.80 76.46 59.72 74.0 Not Reported 2.24 N 2.91 NE 3.58 E x x Other     x x x x x 1.24 Clear
04/18/2019 12:12 AM 59.72 55.22 51.80 76.46 59.72 75.0 Not Reported 2.46 NE 2.24 NE 3.58 E x x Other     x x x x x 1.24 Clear
04/18/2019 12:13 AM 59.54 55.04 51.80 76.46 59.54 75.0 Not Reported 2.68 NE 2.91 N 3.58 E x x Other     x x x x x 1.24 Clear
04/18/2019 12:14 AM 59.36 55.04 51.98 76.46 59.36 76.0 Not Reported 2.68 NE 1.34 E 3.58 E x x Other     x x x x x 1.24 Clear
04/18/2019 12:15 AM 59.18 55.04 51.80 76.46 59.18 76.0 Not Reported 2.01 NE 1.79 N 3.58 E x x Other     x x x x x 1.24 Clear
04/18/2019 12:16 AM 59.18 54.86 51.80 76.46 59.18 76.0 Not Reported 1.57 NE 1.57 NE 3.58 E x x Other     x x x x x 1.24 Clear
04/18/2019 12:17 AM 59.18 55.04 51.98 76.46 59.18 76.0 Not Reported 1.57 E 1.34 E 3.58 NE x x Other     x x x x x 1.24 Clear
04/18/2019 12:18 AM 59.36 55.04 51.80 76.46 59.18 76.0 Not Reported 1.34 E 1.34 NE 3.58 NE x x Other     x x x x x 1.24 Clear
04/18/2019 12:20 AM 59.90 55.22 51.80 76.46 59.18 74.0 Not Reported 1.12 NE 1.12 N 3.58 NE x x Other     x x x x x 1.24 Clear
04/18/2019 12:21 AM 60.08 55.22 51.80 76.46 59.18 74.0 Not Reported 1.12 NE 2.24 NE 3.58 NE x x Other     x x x x x 1.24 Clear
04/18/2019 12:22 AM 60.08 55.22 51.80 76.46 59.18 74.0 Not Reported 1.57 NE 2.01 E 3.58 NE x x Other     x x x x x 1.24 Clear
04/18/2019 12:23 AM 59.90 55.22 51.80 76.46 59.18 74.0 Not Reported 1.57 NE 1.34 SE 3.13 NE x x Other     x x x x x 1.24 Clear
04/18/2019 12:24 AM 59.90 55.22 51.80 76.46 59.18 74.0 Not Reported 1.34 E 2.01 NE 3.13 NE x x Other     x x x x x 1.24 Clear
04/18/2019 12:30 AM x 55.40 x x x 74.0 Not Reported x x 0.67 NE x x x x Other     x x x x x 1.24 Clear
04/18/2019 12:31 AM 60.08 55.22 51.80 76.46 59.18 74.0 Not Reported 1.57 NE 2.24 E 2.91 NE x x Other     x x x x x 1.24 Clear
04/18/2019 12:32 AM 60.08 55.40 51.80 76.46 59.18 74.0 Not Reported 1.57 NE 1.57 NE 2.91 NE x x Other     x x x x x 1.24 Clear
04/18/2019 12:34 AM 60.08 55.40 51.80 76.46 59.18 74.0 Not Reported 1.57 E 1.34 NE 3.13 NE x x Other     x x x x x 1.24 Clear
04/18/2019 12:35 AM 60.08 55.40 51.80 76.46 59.18 74.0 Not Reported 1.12 E 0.45 NW 3.13 NE x x Other     x x x x x 1.24 Clear
04/18/2019 12:36 AM 60.08 55.40 51.80 76.46 59.18 74.0 Not Reported 0.89 NE 0.89 NE 3.13 NE x x Other     x x x x x 1.24 Clear
04/18/2019 12:37 AM 60.08 55.40 51.80 76.46 59.18 74.0 Not Reported 1.34 E 1.79 E 3.13 NE x x Other     x x x x x 1.24 Clear
04/18/2019 12:38 AM 60.08 55.40 51.80 76.46 59.18 74.0 Not Reported 1.57 E 0.89 SE 3.13 NE x x Other     x x x x x 1.24 Clear
04/18/2019 12:39 AM 60.08 55.40 51.80 76.46 59.18 74.0 Not Reported 1.12 E 2.01 SW 3.13 NE x x Other     x x x x x 1.24 Clear
04/18/2019 12:40 AM 60.08 55.40 51.98 76.46 59.18 75.0 Not Reported 0.89 NE 0.67 NE 3.13 NE x x Other     x x x x x 1.24 Clear
04/18/2019 12:41 AM 59.72 55.22 51.98 76.46 59.18 75.0 Not Reported 1.12 NE 2.68 NW 3.13 NE x x Other     x x x x x 1.24 Clear
04/18/2019 12:42 AM 59.72 55.22 51.98 76.46 59.18 75.0 Not Reported 1.12 E 0.45 SW 3.13 NE x x Other     x x x x x 1.24 Clear
04/18/2019 12:43 AM 59.54 55.22 51.98 76.46 59.18 76.0 Not Reported 1.34 W 2.91 NW 2.91 NW x x Other     x x x x x 1.24 Clear
04/18/2019 12:44 AM 59.36 55.22 51.98 76.46 59.18 76.0 Not Reported 1.34 SW 0.89 NW 3.80 W x x Other     x x x x x 1.24 Clear
04/18/2019 12:46 AM 59.18 55.22 52.16 76.46 59.18 77.0 Not Reported 1.34 NW 1.79 W 3.80 W x x Other     x x x x x 1.24 Clear
04/18/2019 12:47 AM 59.18 55.22 52.16 76.46 59.18 78.0 Not Reported 1.57 W 2.68 W 3.80 W x x Other     x x x x x 1.24 Clear
04/18/2019 12:48 AM 59.18 55.22 52.34 76.46 59.18 78.0 Not Reported 1.79 NW 2.68 NW 3.80 W x x Other     x x x x x 1.24 Clear
04/18/2019 12:50 AM 59.18 55.22 52.16 76.46 59.00 78.0 Not Reported 1.12 NE 0.67 W 3.80 W x x Other     x x x x x 1.24 Clear
04/18/2019 12:51 AM 59.18 55.22 52.16 76.46 59.00 77.0 Not Reported 1.57 NE 0.67 NE 4.47 W x x Other     x x x x x 1.24 Clear
04/18/2019 12:52 AM 59.36 55.22 52.16 76.46 59.00 77.0 Not Reported 1.34 N 0.45 W 4.47 W x x Other     x x x x x 1.24 Clear
04/18/2019 12:53 AM 59.36 55.22 52.16 76.46 59.00 77.0 Not Reported 0.67 NE 1.12 NE 4.47 W x x Other     x x x x x 1.24 Clear
04/18/2019 12:54 AM 59.36 55.22 52.16 76.46 59.00 77.0 Not Reported 0.89 W 1.57 NW 4.47 W x x Other     x x x x x 1.24 Clear
04/18/2019 12:55 AM 59.18 55.22 52.16 76.46 59.00 77.0 Not Reported 1.12 W 1.57 N 4.47 W x x Other     x x x x x 1.24 Clear
04/18/2019 12:56 AM 59.18 55.04 52.16 76.46 59.00 77.0 Not Reported 1.57 NE 0.89 E 4.70 W x x Other     x x x x x 1.24 Clear
04/18/2019 12:57 AM 59.18 55.22 52.16 76.46 59.00 77.0 Not Reported 1.79 W 0.22 NE 4.70 W x x Other     x x x x x 1.24 Clear
04/18/2019 12:58 AM 59.36 55.22 52.16 76.46 59.00 77.0 Not Reported 1.12 N 0.89 SE 4.70 W x x Other     x x x x x 1.24 Clear
04/18/2019 12:59 AM 59.36 55.22 51.98 76.46 59.00 76.0 Not Reported 1.12 E 0.89 N 4.70 W x x Other     x x x x x 1.24 Clear
04/18/2019 01:00 AM 59.54 55.22 51.98 76.46 59.00 76.0 Not Reported 1.12 E 0.67 S 4.70 W x x Other     x x x x x 1.24 Clear
04/18/2019 01:01 AM 59.54 55.22 51.98 76.46 59.00 76.0 Not Reported 0.89 E 0.67 NE 4.70 W x x Other     x x x x x 1.24 Clear
04/18/2019 01:02 AM 59.36 55.04 51.98 76.46 59.00 76.0 Not Reported 0.89 E 2.68 N 4.70 W x x Other     x x x x x 1.24 Clear
04/18/2019 01:03 AM 59.36 55.04 51.98 76.46 59.00 76.0 Not Reported 1.34 NW 1.12 W 4.70 W x x Other     x x x x x 1.24 Clear
04/18/2019 01:04 AM 59.36 55.04 51.98 76.46 59.00 76.0 Not Reported 1.57 NW 0.89 NE 4.70 W x x Other     x x x x x 1.24 Clear
04/18/2019 01:05 AM 59.00 55.04 51.98 76.46 59.00 77.0 Not Reported 1.34 W 1.12 NE 4.70 W x x Other     x x x x x 1.24 Clear
04/18/2019 01:06 AM 58.82 55.04 51.98 76.46 58.82 78.0 Not Reported 1.12 NW 0.22 S 3.58 NW x x Other     x x x x x 1.24 Clear
04/18/2019 01:07 AM 58.82 55.04 52.34 76.46 58.82 79.0 Not Reported 0.89 E 0.45 W 3.58 NW x x Other     x x x x x 1.24 Clear
04/18/2019 01:08 AM 58.46 55.04 52.34 76.46 58.46 80.0 Not Reported 1.57 E 2.46 E 3.58 NW x x Other     x x x x x 1.24 Clear
04/18/2019 01:09 AM 58.46 54.86 52.16 76.46 58.46 79.0 Not Reported 2.46 E 3.13 E 3.80 E x x Other     x x x x x 1.24 Clear
04/18/2019 01:10 AM 58.64 54.68 51.98 76.46 58.46 78.0 Not Reported 2.68 E 2.46 SE 3.80 E x x Other     x x x x x 1.24 Clear
04/18/2019 01:12 AM x 54.68 51.80 76.46 58.46 78.0 Not Reported 1.79 E 1.79 E 3.80 E x x Other     x x x x x 1.24 Clear
04/18/2019 01:13 AM 58.64 54.68 51.80 76.46 58.46 78.0 Not Reported 1.79 E 2.01 E 3.80 E x x Other     x x x x x 1.24 Clear
04/18/2019 01:14 AM 58.64 54.68 51.80 76.46 58.46 78.0 Not Reported 1.79 E 1.34 E 3.80 E x x Other     x x x x x 1.24 Clear
04/18/2019 01:15 AM 58.82 54.68 51.80 76.46 58.46 77.0 Not Reported 1.79 E 1.79 SE 3.80 E x x Other     x x x x x 1.24 Clear
04/18/2019 01:16 AM 58.82 54.86 51.80 76.46 58.46 77.0 Not Reported 1.57 E 1.34 SE 3.80 E x x Other     x x x x x 1.24 Clear
04/18/2019 01:17 AM 58.82 54.86 51.80 76.46 58.46 77.0 Not Reported 1.34 E 0.89 S 3.80 E x x Other     x x x x x 1.24 Clear
04/18/2019 01:18 AM 58.82 54.86 51.80 76.46 58.46 77.0 Not Reported 1.12 E 1.12 W 3.80 E x x Other     x x x x x 1.24 Clear
04/18/2019 01:19 AM 58.82 54.86 51.80 76.46 58.46 77.0 Not Reported 0.67 SW 0.22 SW 3.13 E x x Other     x x x x x 1.24 Clear
04/18/2019 01:20 AM 58.64 54.68 51.80 76.46 58.46 78.0 Not Reported 0.45 SW 0.22 NW 3.13 E x x Other     x x x x x 1.24 Clear
04/18/2019 01:21 AM 58.46 54.86 52.16 76.46 58.46 79.0 Not Reported 0.45 W 0.67 SW 3.13 E x x Other     x x x x x 1.24 Clear
04/18/2019 01:22 AM 58.28 54.86 52.52 76.46 58.28 81.0 Not Reported 0.67 W 0.89 W 3.13 E x x Other     x x x x x 1.24 Clear
04/18/2019 01:23 AM 58.10 55.04 52.70 76.46 58.10 82.0 Not Reported 0.67 SW 0.67 S 3.13 E x x Other     x x x x x 1.24 Clear
04/18/2019 01:24 AM 57.92 54.86 52.34 76.46 57.92 82.0 Not Reported 0.89 SW 2.01 W 3.13 E x x Other     x x x x x 1.24 Clear
04/18/2019 01:25 AM 57.92 54.86 52.34 76.46 57.92 81.0 Not Reported 0.89 W 0.45 E 3.13 E x x Other     x x x x x 1.24 Clear
04/18/2019 01:26 AM 58.10 54.68 52.16 76.46 57.92 81.0 Not Reported 0.45 S 0.45 E 2.91 W x x Other     x x x x x 1.24 Clear
04/18/2019 01:27 AM 57.92 54.68 52.34 76.46 57.92 81.0 Not Reported 0.89 S 1.12 SW 4.03 NW x x Other     x x x x x 1.24 Clear
04/18/2019 01:28 AM 58.10 54.86 52.34 76.46 57.92 81.0 Not Reported 2.01 S 2.91 NW 5.14 W x x Other     x x x x x 1.24 Clear
04/18/2019 01:29 AM 58.28 54.86 52.52 76.46 57.92 81.0 Not Reported 2.01 W 1.34 S 5.14 W x x Other     x x x x x 1.24 Clear
04/18/2019 01:30 AM 58.28 54.86 52.34 76.46 57.92 81.0 Not Reported 1.12 NW 0.45 SE 5.14 W x x Other     x x x x x 1.24 Clear
04/18/2019 01:31 AM 58.10 54.68 52.16 76.46 57.92 80.0 Not Reported 0.67 SE 1.34 SE 5.14 W x x Other     x x x x x 1.24 Clear
04/18/2019 01:33 AM 57.92 54.68 52.16 76.46 57.92 81.0 Not Reported 0.67 SE 0.45 SE 5.14 W x x Other     x x x x x 1.24 Clear
04/18/2019 01:34 AM 57.74 54.50 51.98 76.46 57.74 81.0 Not Reported 0.67 SE 0.67 S 5.14 W x x Other     x x x x x 1.24 Clear
04/18/2019 01:35 AM 57.74 54.50 52.16 76.46 57.74 82.0 Not Reported 0.67 S 0.45 SE 5.14 W x x Other     x x x x x 1.24 Clear
04/18/2019 01:36 AM 57.56 54.50 52.16 76.46 57.56 82.0 Not Reported 0.89 SE 1.34 SE 5.14 W x x Other     x x x x x 1.24 Clear
04/18/2019 01:37 AM 57.56 54.50 52.16 76.46 57.56 82.0 Not Reported 1.12 SE 1.79 SE 5.14 W x x Other     x x x x x 1.24 Clear
04/18/2019 01:38 AM 57.38 54.50 52.16 76.46 57.38 82.0 Not Reported 1.57 SE 1.34 E 2.46 NW x x Other     x x x x x 1.24 Clear
04/18/2019 01:39 AM 57.56 54.50 52.34 76.46 57.38 83.0 Not Reported 1.57 SE 2.01 SE 2.24 E x x Other     x x x x x 1.24 Clear
04/18/2019 01:40 AM 57.38 54.68 52.70 76.46 57.38 84.0 Not Reported 1.57 E 1.34 SE 2.24 SE x x Other     x x x x x 1.24 Clear
04/18/2019 01:41 AM 57.38 54.68 52.52 76.46 57.38 83.0 Not Reported 1.57 SE 1.79 SE 2.24 SE x x Other     x x x x x 1.24 Clear
04/18/2019 01:42 AM 57.56 54.68 52.52 76.46 57.38 83.0 Not Reported 1.57 SE 1.57 SE 2.46 SE x x Other     x x x x x 1.24 Clear
04/18/2019 01:43 AM 57.38 54.50 52.34 76.46 57.38 83.0 Not Reported 1.57 SE 1.12 SE 2.46 SE x x Other     x x x x x 1.24 Clear
04/18/2019 01:44 AM 57.38 54.68 52.52 76.46 57.38 84.0 Not Reported 1.12 SE 1.34 SW 2.46 SE x x Other     x x x x x 1.24 Clear
04/18/2019 01:45 AM 57.38 54.68 52.70 76.46 57.38 84.0 Not Reported 0.89 W 0.45 SE 2.46 SE x x Other     x x x x x 1.24 Clear
04/18/2019 01:46 AM 57.56 54.86 52.70 76.46 57.38 83.0 Not Reported 0.89 SE 1.12 SE 2.46 SE x x Other     x x x x x 1.24 Clear
04/18/2019 01:47 AM 57.56 54.68 52.52 76.46 57.38 83.0 Not Reported 0.67 SE 1.79 SE 2.46 SE x x Other     x x x x x 1.24 Clear
04/18/2019 01:49 AM 57.38 54.32 52.16 76.46 57.38 82.0 Not Reported 1.34 SE 1.12 S 2.46 SE x x Other     x x x x x 1.24 Clear
04/18/2019 01:50 AM 57.38 54.32 51.98 76.46 57.38 82.0 Not Reported 1.12 SE 0.89 SE 2.46 SE x x Other     x x x x x 1.24 Clear
04/18/2019 01:51 AM 57.56 54.50 52.16 76.46 57.38 82.0 Not Reported 0.89 SE 0.67 SE 2.46 SE x x Other     x x x x x 1.24 Clear
04/18/2019 01:52 AM 57.74 54.50 51.98 76.46 57.38 81.0 Not Reported 0.89 SE 2.01 SE 2.46 N x x Other     x x x x x 1.24 Clear
04/18/2019 01:53 AM 57.74 54.32 51.80 76.46 57.38 80.0 Not Reported 1.34 SE 1.57 SE 2.46 N x x Other     x x x x x 1.24 Clear
04/18/2019 01:54 AM 57.56 54.32 51.80 76.46 57.38 81.0 Not Reported 1.34 SE 1.12 SE 2.46 N x x Other     x x x x x 1.24 Clear
04/18/2019 01:55 AM 57.38 54.14 51.80 76.46 57.38 81.0 Not Reported 1.34 SE 1.34 S 2.46 N x x Other     x x x x x 1.24 Clear
04/18/2019 01:56 AM 57.02 53.96 51.44 76.46 57.02 81.0 Not Reported 1.34 S 2.01 S 2.46 N x x Other     x x x x x 1.24 Clear
04/18/2019 01:57 AM 56.84 53.96 51.62 76.46 56.84 82.0 Not Reported 1.34 S 0.67 SE 2.46 N x x Other     x x x x x 1.24 Clear
04/18/2019 01:58 AM 56.84 53.96 51.80 76.46 56.84 83.0 Not Reported 0.89 E 0.89 SE 2.46 N x x Other     x x x x x 1.24 Clear
04/18/2019 01:59 AM 56.84 53.96 51.80 76.46 56.84 83.0 Not Reported 0.67 E 0.00 NE 2.46 N x x Other     x x x x x 1.24 Clear
04/18/2019 02:00 AM 56.84 53.96 51.80 76.46 56.84 83.0 Not Reported 0.67 NW 0.45 W 2.46 N x x Other     x x x x x 1.24 Clear
04/18/2019 02:01 AM 57.02 54.14 51.80 76.46 56.84 83.0 Not Reported 0.67 NW 0.22 E 2.46 SE x x Other     x x x x x 1.24 Clear
04/18/2019 02:02 AM 57.02 54.14 51.98 76.46 56.84 83.0 Not Reported 0.45 E 0.67 SE 2.46 SE x x Other     x x x x x 1.24 Clear
04/18/2019 02:03 AM 57.02 54.14 51.80 76.46 56.84 83.0 Not Reported 0.45 E 0.67 E 2.24 SE x x Other     x x x x x 1.24 Clear
04/18/2019 02:04 AM 57.02 53.96 51.62 76.46 56.84 82.0 Not Reported 0.67 E 0.22 S 2.24 SE x x Other     x x x x x 1.24 Clear
04/18/2019 02:05 AM 56.84 53.96 51.62 76.46 56.84 82.0 Not Reported 0.45 E 0.67 E 2.24 SE x x Other     x x x x x 1.24 Clear
04/18/2019 02:06 AM 56.84 53.78 51.62 76.46 56.84 83.0 Not Reported 0.67 S 1.79 E 1.79 W x x Other     x x x x x 1.24 Clear
04/18/2019 02:07 AM 56.84 53.96 51.62 76.46 56.84 83.0 Not Reported 1.12 SE 0.67 SE 2.91 E x x Other     x x x x x 1.24 Clear
04/18/2019 02:08 AM 56.84 53.96 51.80 76.46 56.84 83.0 Not Reported 1.12 SE 0.67 NW 3.13 NW x x Other     x x x x x 1.24 Clear
04/18/2019 02:09 AM 57.20 54.14 51.80 76.46 56.84 82.0 Not Reported 1.12 W 1.34 W 3.13 NW x x Other     x x x x x 1.24 Clear
04/18/2019 02:10 AM 57.38 54.32 51.98 76.46 56.84 82.0 Not Reported 1.34 W 1.34 SE 3.13 NW x x Other     x x x x x 1.24 Clear
04/18/2019 02:11 AM 57.56 54.32 51.98 76.46 56.84 81.0 Not Reported 1.34 SE 0.45 E 3.13 NW x x Other     x x x x x 1.24 Clear
04/18/2019 02:12 AM 57.38 54.32 51.98 76.46 56.84 82.0 Not Reported 1.34 SE 1.57 N 3.36 W x x Other     x x x x x 1.24 Clear
04/18/2019 02:13 AM 57.38 54.32 51.98 76.46 56.84 82.0 Not Reported 0.89 SW 0.45 E 3.36 W x x Other     x x x x x 1.24 Clear
04/18/2019 02:14 AM 57.20 54.14 51.62 76.46 56.84 82.0 Not Reported 0.89 E 1.57 E 3.36 W x x Other     x x x x x 1.24 Clear
04/18/2019 02:15 AM 57.02 54.14 51.98 76.46 56.84 83.0 Not Reported 1.79 E 4.25 E 4.25 E x x Other     x x x x x 1.24 Clear
04/18/2019 02:16 AM 57.38 54.14 51.62 76.46 56.84 81.0 Not Reported 2.91 E 2.91 E 4.25 E x x Other     x x x x x 1.24 Clear
04/18/2019 02:17 AM 56.84 53.60 51.08 76.46 56.84 81.0 Not Reported 3.58 E 4.25 E 4.92 E x x Other     x x x x x 1.24 Clear
04/18/2019 02:18 AM 56.30 53.24 50.90 76.46 56.30 82.0 Not Reported 4.47 E 6.04 E 6.04 NE x x Other     x x x x x 1.24 Clear
04/18/2019 02:19 AM 55.58 52.88 50.54 76.46 55.58 83.0 Not Reported 5.59 E 6.93 E 6.49 E x x Other     x x x x x 1.24 Clear
04/18/2019 02:20 AM 54.50 52.16 50.00 76.46 54.50 85.0 Not Reported 6.49 E 6.93 E 7.61 E x x Other     x x x x x 1.24 Clear
04/18/2019 02:21 AM 53.96 51.80 50.18 76.46 53.96 87.0 Not Reported 6.71 E 6.26 E 7.61 E x x Other     x x x x x 1.24 Clear
04/18/2019 02:22 AM 53.78 51.98 50.36 76.46 53.78 88.0 Not Reported 6.26 E 5.37 E 7.61 E x x Other     x x x x x 1.24 Clear
04/18/2019 02:23 AM 53.60 51.98 50.72 76.46 53.60 90.0 Not Reported 5.59 E 5.14 E 7.61 E x x Other     x x x x x 1.24 Clear
04/18/2019 02:24 AM 53.78 52.34 51.26 76.46 53.60 91.0 Not Reported 4.70 E 5.37 E 7.61 E x x Other     x x x x x 1.24 Clear
04/18/2019 02:27 AM 54.14 52.70 51.44 76.46 53.60 90.0 Not Reported 6.04 E 6.26 E 7.61 E x x Other     x x x x x 1.24 Clear
04/18/2019 02:28 AM 54.32 52.70 51.26 76.46 53.60 90.0 Not Reported 5.59 E 5.59 E 7.61 E x x Other     x x x x x 1.24 Clear
04/18/2019 02:29 AM 54.32 52.70 51.26 76.46 53.60 89.0 Not Reported 5.37 E 4.92 E 7.61 E x x Other     x x x x x 1.24 Clear
04/18/2019 02:30 AM 54.32 52.70 51.44 76.46 53.60 90.0 Not Reported 5.37 E 5.59 E 7.16 NE x x Other     x x x x x 1.24 Clear
04/18/2019 02:31 AM 54.68 53.06 51.62 76.46 53.60 89.0 Not Reported 5.37 E 4.47 E 6.71 E x x Other     x x x x x 1.24 Clear
04/18/2019 02:32 AM 54.86 53.06 51.62 76.46 53.60 89.0 Not Reported 5.14 E 4.47 E 6.71 E x x Other     x x x x x 1.24 Clear
04/18/2019 02:33 AM 55.04 53.06 51.62 76.46 53.60 88.0 Not Reported 4.92 E 3.36 E 6.71 E x x Other     x x x x x 1.24 Clear
04/18/2019 02:34 AM 55.04 53.06 51.44 76.46 53.60 87.0 Not Reported 4.25 E 3.36 E 6.71 E x x Other     x x x x x 1.24 Clear
04/18/2019 02:35 AM 55.04 53.06 51.26 76.46 53.60 87.0 Not Reported 3.58 E 3.58 E 6.71 E x x Other     x x x x x 1.24 Clear
04/18/2019 02:36 AM 55.22 53.06 51.44 76.46 53.60 87.0 Not Reported 3.80 E 4.03 E 6.71 E x x Other     x x x x x 1.24 Clear
04/18/2019 02:37 AM 55.22 53.06 51.44 76.46 53.60 87.0 Not Reported 3.80 E 3.13 E 6.71 E x x Other     x x x x x 1.24 Clear
04/18/2019 02:38 AM 55.22 53.06 51.44 76.46 53.60 87.0 Not Reported 2.91 E 1.12 S 6.71 E x x Other     x x x x x 1.24 Clear
04/18/2019 02:39 AM 55.40 53.24 51.44 76.46 53.60 86.0 Not Reported 1.57 E 0.89 SW 6.71 E x x Other     x x x x x 1.24 Clear
04/18/2019 02:40 AM 55.40 53.24 51.44 76.46 53.60 86.0 Not Reported 1.12 S 2.91 SE 6.04 E x x Other     x x x x x 1.24 Clear
04/18/2019 02:41 AM 55.40 53.24 51.44 76.46 53.60 86.0 Not Reported 1.34 SE 2.68 SE 6.04 E x x Other     x x x x x 1.24 Clear
04/18/2019 02:42 AM 55.58 53.24 51.44 76.46 53.60 85.0 Not Reported 2.24 SE 3.36 SE 5.82 E x x Other     x x x x x 1.24 Clear
04/18/2019 02:43 AM 55.58 53.42 51.44 76.46 53.60 85.0 Not Reported 2.68 SE 1.12 SE 4.92 E x x Other     x x x x x 1.24 Clear
04/18/2019 02:44 AM 55.94 53.42 51.62 76.46 53.60 85.0 Not Reported 1.79 SE 0.89 SE 4.92 E x x Other     x x x x x 1.24 Clear
04/18/2019 02:45 AM 55.94 53.60 51.44 76.46 53.60 84.0 Not Reported 1.12 SE 1.34 E 4.92 E x x Other     x x x x x 1.24 Clear
04/18/2019 02:46 AM 56.30 53.60 51.62 76.46 53.60 83.0 Not Reported 2.46 E 4.92 E 4.92 E x x Other     x x x x x 1.24 Clear
04/18/2019 02:47 AM 56.48 53.60 51.44 76.46 53.60 83.0 Not Reported 3.58 E 2.24 E 4.92 E x x Other     x x x x x 1.24 Clear
04/18/2019 02:48 AM 56.30 53.42 51.26 76.46 53.60 83.0 Not Reported 3.80 E 4.25 E 4.92 E x x Other     x x x x x 1.24 Clear
04/18/2019 02:49 AM 56.12 53.42 51.26 76.46 53.60 83.0 Not Reported 3.80 E 4.03 E 5.37 E x x Other     x x x x x 1.24 Clear
04/18/2019 02:50 AM 56.12 53.42 51.26 76.46 53.60 83.0 Not Reported 4.25 E 4.70 E 5.59 E x x Other     x x x x x 1.24 Clear
04/18/2019 02:51 AM 56.12 53.42 51.26 76.46 53.60 84.0 Not Reported 4.70 E 3.80 E 5.59 E x x Other     x x x x x 1.24 Clear
04/18/2019 02:52 AM 56.12 53.42 51.26 76.46 53.60 84.0 Not Reported 4.03 E 4.03 E 5.59 E x x Other     x x x x x 1.24 Clear
04/18/2019 02:53 AM 55.94 53.42 51.26 76.46 53.60 84.0 Not Reported 3.58 E 2.91 E 5.59 E x x Other     x x x x x 1.24 Clear
04/18/2019 02:54 AM 55.94 53.24 51.26 76.46 53.60 84.0 Not Reported 3.58 E 3.80 E 5.59 E x x Other     x x x x x 1.24 Clear
04/18/2019 02:55 AM 55.76 53.24 51.26 76.46 53.60 85.0 Not Reported 4.03 E 2.46 E 5.59 E x x Other     x x x x x 1.24 Clear
04/18/2019 02:56 AM 55.76 53.24 51.26 76.46 53.60 85.0 Not Reported 4.03 E 4.25 E 5.59 E x x Other     x x x x x 1.24 Clear
04/18/2019 02:57 AM 55.76 53.24 51.44 76.46 53.60 85.0 Not Reported 4.03 E 4.03 E 5.59 E x x Other     x x x x x 1.24 Clear
04/18/2019 02:58 AM 55.76 53.24 51.44 76.46 53.60 85.0 Not Reported 4.47 E 5.14 E 5.59 E x x Other     x x x x x 1.24 Clear
04/18/2019 02:59 AM 55.58 53.24 51.44 76.46 53.60 85.0 Not Reported 4.47 E 4.47 E 5.59 E x x Other     x x x x x 1.24 Clear
04/18/2019 03:00 AM 55.58 53.24 51.44 76.46 53.60 85.0 Not Reported 3.80 E 3.36 E 5.59 E x x Other     x x x x x 1.24 Clear
04/18/2019 03:01 AM 55.58 53.24 51.26 76.46 53.60 85.0 Not Reported 3.36 E 2.01 E 5.59 E x x Other     x x x x x 1.24 Clear
04/18/2019 03:02 AM 55.58 53.06 51.26 76.46 53.60 85.0 Not Reported 2.68 SE 2.01 SE 5.59 E x x Other     x x x x x 1.24 Clear
04/18/2019 03:03 AM 55.58 53.24 51.44 76.46 53.60 85.0 Not Reported 1.57 SE 0.89 SE 5.59 E x x Other     x x x x x 1.24 Clear
04/18/2019 03:04 AM 55.76 53.24 51.26 76.46 53.60 85.0 Not Reported 1.12 SE 1.57 E 5.59 E x x Other     x x x x x 1.24 Clear
04/18/2019 03:05 AM 55.58 53.24 51.26 76.46 53.60 85.0 Not Reported 1.12 SE 0.89 W 5.59 E x x Other     x x x x x 1.24 Clear
04/18/2019 03:06 AM 55.58 53.42 51.44 76.46 53.60 86.0 Not Reported 1.12 W 0.45 W 5.59 E x x Other     x x x x x 1.24 Clear
04/18/2019 03:07 AM 55.76 53.42 51.44 76.46 53.60 85.0 Not Reported 0.89 SE 1.34 SE 5.59 E x x Other     x x x x x 1.24 Clear
04/18/2019 03:08 AM 55.76 53.24 51.44 x 53.60 85.0 Not Reported 0.89 SE 1.57 SW 4.25 E x x Other     x x x x x 1.24 Clear
04/18/2019 03:09 AM 55.76 53.24 51.26 76.46 53.60 85.0 Not Reported 0.89 S 0.22 W 4.25 E x x Other     x x x x x 1.24 Clear
04/18/2019 03:10 AM 55.76 53.42 51.44 76.46 53.60 85.0 Not Reported 0.89 SW 0.89 W 3.58 E x x Other     x x x x x 1.24 Clear
04/18/2019 03:11 AM 55.76 53.42 51.44 76.46 53.60 85.0 Not Reported 0.89 SW 0.89 SW 3.13 W x x Other     x x x x x 1.24 Clear
04/18/2019 03:12 AM 55.94 53.42 51.62 76.46 53.60 85.0 Not Reported 0.89 SW 0.45 S 3.13 W x x Other     x x x x x 1.24 Clear
04/18/2019 03:13 AM 55.76 53.42 51.44 76.46 53.60 85.0 Not Reported 1.12 NW 1.79 NW 3.13 W x x Other     x x x x x 1.24 Clear
04/18/2019 03:14 AM 55.76 53.24 51.44 76.46 53.60 85.0 Not Reported 1.12 NW 1.12 SE 3.13 W x x Other     x x x x x 1.24 Clear
04/18/2019 03:16 AM 55.40 53.06 51.26 76.46 53.60 86.0 Not Reported 0.67 SE 0.89 E 2.68 NW x x Other     x x x x x 1.24 Clear
04/18/2019 03:17 AM 55.40 53.06 51.08 76.46 53.60 85.0 Not Reported 0.89 SE 0.45 NW 2.68 NW x x Other     x x x x x 1.24 Clear
04/18/2019 03:18 AM 55.40 53.06 51.26 76.46 53.60 86.0 Not Reported 0.89 SE 0.45 E 2.68 NW x x Other     x x x x x 1.24 Clear
04/18/2019 03:19 AM 55.58 53.24 51.44 76.46 53.60 85.0 Not Reported 1.12 E 0.89 W 3.13 W x x Other     x x x x x 1.24 Clear
04/18/2019 03:20 AM 55.76 53.24 51.44 76.46 53.60 85.0 Not Reported 1.12 W 1.12 W 3.13 W x x Other     x x x x x 1.24 Clear
04/18/2019 03:21 AM 55.94 53.24 51.26 76.46 53.60 84.0 Not Reported 0.89 NE 1.34 SE 3.13 W x x Other     x x x x x 1.24 Clear
04/18/2019 03:22 AM 55.76 53.06 50.90 76.46 53.60 84.0 Not Reported 1.12 E 1.34 E 3.13 W x x Other     x x x x x 1.24 Clear
04/18/2019 03:23 AM 55.76 53.06 50.90 76.46 53.60 84.0 Not Reported 1.57 E 3.80 E 3.80 E x x Other     x x x x x 1.24 Clear
04/18/2019 03:24 AM 55.58 52.88 50.72 76.46 53.60 84.0 Not Reported 1.79 E 1.12 SE 4.03 E x x Other     x x x x x 1.24 Clear
04/18/2019 03:25 AM 55.58 52.88 50.90 76.46 53.60 84.0 Not Reported 1.79 E 1.57 S 4.03 E x x Other     x x x x x 1.24 Clear
04/18/2019 03:26 AM 55.58 53.06 50.90 76.46 53.60 84.0 Not Reported 1.34 SE 0.00 E 4.03 E x x Other     x x x x x 1.24 Clear
04/18/2019 03:27 AM 55.76 53.06 51.08 76.46 53.60 84.0 Not Reported 0.89 SE 0.67 W 4.03 E x x Other     x x x x x 1.24 Clear
04/18/2019 03:28 AM 55.76 53.24 51.08 76.46 53.60 84.0 Not Reported 0.89 W 1.12 SW 4.03 E x x Other     x x x x x 1.24 Clear
04/18/2019 03:29 AM 55.58 53.06 51.08 76.46 53.60 85.0 Not Reported 1.12 S 3.13 W 4.03 E x x Other     x x x x x 1.24 Clear
04/18/2019 03:30 AM 55.58 53.06 51.26 76.46 53.60 85.0 Not Reported 1.34 S 0.67 E 4.03 E x x Other     x x x x x 1.24 Clear
04/18/2019 03:31 AM 55.58 53.24 51.26 76.46 53.60 85.0 Not Reported 1.34 SE 1.57 E 4.03 E x x Other     x x x x x 1.24 Clear
04/18/2019 03:32 AM 55.58 53.06 50.90 76.46 53.60 84.0 Not Reported 1.79 E 3.13 E 4.03 E x x Other     x x x x x 1.24 Clear
04/18/2019 03:33 AM 55.22 52.70 50.54 76.46 53.60 84.0 Not Reported 2.46 E 2.68 E 4.03 E x x Other     x x x x x 1.24 Clear
04/18/2019 03:34 AM 54.86 52.34 50.36 76.46 53.60 85.0 Not Reported 2.68 E 3.13 E 3.80 E x x Other     x x x x x 1.24 Clear
04/18/2019 03:35 AM 54.50 52.16 50.36 76.46 53.60 86.0 Not Reported 3.13 E 4.47 E 4.47 E x x Other     x x x x x 1.24 Clear
04/18/2019 03:36 AM 54.32 52.16 50.54 76.46 53.60 87.0 Not Reported 3.80 E 3.36 SE 4.70 E x x Other     x x x x x 1.24 Clear
04/18/2019 03:37 AM 54.50 52.52 50.72 76.46 53.60 87.0 Not Reported 3.36 E 1.79 E 4.70 E x x Other     x x x x x 1.24 Clear
04/18/2019 03:38 AM 54.68 52.52 50.72 76.46 53.60 86.0 Not Reported 2.24 E 0.89 S 4.70 E x x Other     x x x x x 1.24 Clear
04/18/2019 03:39 AM 54.86 52.70 50.90 76.46 53.60 86.0 Not Reported 1.57 SE 1.57 SE 4.70 E x x Other     x x x x x 1.24 Clear
04/18/2019 03:40 AM 55.04 52.70 50.72 76.46 53.60 85.0 Not Reported 2.01 E 2.46 E 4.70 E x x Other     x x x x x 1.24 Clear
04/18/2019 03:41 AM 55.04 52.52 50.54 76.46 53.60 85.0 Not Reported 2.46 E 3.36 E 4.70 E x x Other     x x x x x 1.24 Clear
04/18/2019 03:42 AM 55.04 52.52 50.54 76.46 53.60 85.0 Not Reported 2.24 E 2.46 E 4.70 E x x Other     x x x x x 1.24 Clear
04/18/2019 03:43 AM 55.04 52.52 50.54 76.46 53.60 85.0 Not Reported 1.79 E 1.57 SE 4.70 E x x Other     x x x x x 1.24 Clear
04/18/2019 03:48 AM 54.50 52.34 x x 53.60 87.0 Not Reported 2.91 E 1.57 E x x x x Other     x x x x x 1.24 Clear
04/18/2019 03:50 AM 54.14 52.16 50.36 76.46 53.60 87.0 Not Reported 2.91 E 2.91 E 4.47 E x x Other     x x x x x 1.24 Clear
04/18/2019 03:51 AM 53.96 51.98 50.36 76.46 53.60 87.0 Not Reported 2.91 E 2.01 E 4.47 E x x Other     x x x x x 1.24 Clear
04/18/2019 03:52 AM 53.78 51.80 50.18 76.46 53.60 88.0 Not Reported 2.24 E 2.68 E 4.47 E x x Other     x x x x x 1.24 Clear
04/18/2019 03:53 AM 53.78 51.98 50.54 76.46 53.60 89.0 Not Reported 2.01 E 2.46 E 4.47 E x x Other     x x x x x 1.24 Clear
04/18/2019 03:54 AM 53.78 52.16 50.72 76.46 53.60 89.0 Not Reported 2.24 E 2.01 E 4.47 E x x Other     x x x x x 1.24 Clear
04/18/2019 03:57 AM 54.32 52.34 50.90 76.46 53.60 88.0 Not Reported 2.01 E 2.01 E 4.25 E x x Other     x x x x x 1.24 Clear
04/18/2019 03:58 AM 54.50 52.34 50.72 76.46 53.60 87.0 Not Reported 1.79 E 1.57 SE 4.25 E x x Other     x x x x x 1.24 Clear
04/18/2019 03:59 AM 54.50 52.52 50.72 76.46 53.60 87.0 Not Reported 2.01 E 1.79 SE 4.03 E x x Other     x x x x x 1.24 Clear
04/18/2019 04:01 AM 54.50 52.52 50.72 76.46 53.60 87.0 Not Reported 1.34 SE 1.57 W 3.58 E x x Other     x x x x x 1.24 Clear
04/18/2019 04:02 AM 54.68 52.52 50.72 76.46 53.60 86.0 Not Reported 1.34 W 1.57 SW 3.58 E x x Other     x x x x x 1.24 Clear
04/18/2019 04:03 AM 54.68 52.52 50.72 76.46 53.60 86.0 Not Reported 1.12 SW 0.67 SW 3.58 E x x Other     x x x x x 1.24 Clear
04/18/2019 04:04 AM 54.68 52.52 50.72 76.46 53.60 86.0 Not Reported 0.67 SW 0.45 SW 3.58 E x x Other     x x x x x 1.24 Clear
04/18/2019 04:05 AM 54.50 52.34 50.72 76.46 53.60 86.0 Not Reported 0.67 SW 0.22 W 3.58 E x x Other     x x x x x 1.24 Clear
04/18/2019 04:09 AM 54.68 52.70 50.90 76.46 53.60 87.0 Not Reported 0.89 SW 0.89 SW 2.68 W x x Other     x x x x x 1.24 Clear
04/18/2019 04:10 AM 54.68 52.70 51.26 76.46 53.60 88.0 Not Reported 0.89 SW 1.12 SW 2.68 W x x Other     x x x x x 1.24 Clear
04/18/2019 04:11 AM 54.68 52.88 51.26 76.46 53.60 88.0 Not Reported 1.12 SW 1.34 SW 2.24 W x x Other     x x x x x 1.24 Clear
04/18/2019 04:12 AM 54.68 52.88 51.62 76.46 53.60 89.0 Not Reported 1.12 SW 1.12 W 2.68 NW x x Other     x x x x x 1.24 Clear
04/18/2019 04:13 AM 54.68 53.06 51.62 76.46 53.60 90.0 Not Reported 1.12 SW 2.01 W 2.68 NW x x Other     x x x x x 1.24 Clear
04/18/2019 04:15 AM 54.50 53.06 51.80 76.46 53.60 91.0 Not Reported 1.12 SE 1.12 S 3.36 W x x Other     x x x x x 1.24 Clear
04/18/2019 04:16 AM 54.50 53.06 51.98 76.46 53.60 91.0 Not Reported 1.12 SE 3.58 W 3.58 W x x Other     x x x x x 1.24 Clear
04/18/2019 04:17 AM 54.50 53.06 51.98 76.46 53.60 91.0 Not Reported 1.34 W 2.01 W 3.58 W x x Other     x x x x x 1.24 Clear
04/18/2019 04:18 AM 54.32 53.06 51.98 76.46 53.60 91.0 Not Reported 1.34 W 0.45 S 3.58 W x x Other     x x x x x 1.24 Clear
04/18/2019 04:19 AM 54.32 53.06 51.98 76.46 53.60 91.0 Not Reported 0.89 S 0.67 SW 3.58 W x x Other     x x x x x 1.24 Clear
04/18/2019 04:20 AM 54.32 53.06 51.98 76.46 53.60 92.0 Not Reported 0.67 S 1.12 SW 3.58 W x x Other     x x x x x 1.24 Clear
04/18/2019 04:21 AM 54.32 53.06 52.16 76.46 53.60 92.0 Not Reported 1.12 SW 0.89 SW 3.58 W x x Other     x x x x x 1.24 Clear
04/18/2019 04:22 AM 54.32 53.06 51.98 76.46 53.60 92.0 Not Reported 1.12 SW 2.24 W 3.58 W x x Other     x x x x x 1.24 Clear
04/18/2019 04:23 AM 54.32 53.24 52.34 76.46 53.60 93.0 Not Reported 0.89 SW 0.89 W 3.58 W x x Other     x x x x x 1.24 Clear
04/18/2019 04:24 AM 54.32 53.24 52.34 76.46 53.60 93.0 Not Reported 0.89 W 0.67 N 3.58 W x x Other     x x x x x 1.24 Clear
04/18/2019 04:26 AM 54.32 53.24 52.16 76.46 53.60 92.0 Not Reported 0.67 SE 2.24 NW 3.36 NW x x Other     x x x x x 1.24 Clear
04/18/2019 04:27 AM 54.32 53.06 52.16 76.46 53.60 92.0 Not Reported 0.89 S 0.45 W 2.91 SW x x Other     x x x x x 1.24 Clear
04/18/2019 04:28 AM 54.32 53.06 51.98 76.46 53.60 91.0 Not Reported 0.89 S 1.57 W 2.68 W x x Other     x x x x x 1.24 Clear
04/18/2019 04:29 AM 54.50 53.06 51.98 76.46 53.60 91.0 Not Reported 0.89 W 0.67 W 2.68 W x x Other     x x x x x 1.24 Clear
04/18/2019 04:30 AM 54.32 52.88 51.80 76.46 53.60 91.0 Not Reported 1.12 SW 0.89 SW 4.03 W x x Other     x x x x x 1.24 Clear
04/18/2019 04:31 AM 54.32 53.06 51.98 76.46 53.60 91.0 Not Reported 1.34 W 1.57 W 4.03 W x x Other     x x x x x 1.24 Clear
04/18/2019 04:32 AM 54.32 53.06 51.98 76.46 53.60 91.0 Not Reported 1.34 W 2.46 W 4.03 W x x Other     x x x x x 1.24 Clear
04/18/2019 04:33 AM 54.14 53.06 51.98 76.46 53.60 92.0 Not Reported 1.79 W 2.24 W 5.82 W x x Other     x x x x x 1.24 Clear
04/18/2019 04:34 AM 54.14 52.88 51.98 76.46 53.60 92.0 Not Reported 2.46 W 1.57 W 5.82 W x x Other     x x x x x 1.24 Clear
04/18/2019 04:35 AM 54.14 52.88 51.80 76.46 53.60 92.0 Not Reported 2.46 W 1.79 SW 5.82 W x x Other     x x x x x 1.24 Clear
04/18/2019 04:36 AM 53.96 52.70 51.62 76.46 53.60 92.0 Not Reported 2.46 W 2.24 W 5.82 W x x Other     x x x x x 1.24 Clear
04/18/2019 04:37 AM 53.96 52.52 51.26 76.46 53.60 91.0 Not Reported 2.46 W 2.01 W 5.82 W x x Other     x x x x x 1.24 Clear
04/18/2019 04:38 AM 53.78 52.34 50.90 76.46 53.60 90.0 Not Reported 2.46 W 1.57 W 5.82 W x x Other     x x x x x 1.24 Clear
04/18/2019 04:39 AM 53.78 52.16 50.90 76.46 53.60 90.0 Not Reported 3.13 W 2.91 W 7.38 W x x Other     x x x x x 1.24 Clear
04/18/2019 04:40 AM 53.78 52.34 51.08 76.46 53.60 90.0 Not Reported 3.58 W 4.25 W 7.38 W x x Other     x x x x x 1.24 Clear
04/18/2019 04:41 AM 53.78 52.16 50.90 76.46 53.60 89.0 Not Reported 3.58 W 6.49 W 7.38 W x x Other     x x x x x 1.24 Clear
04/18/2019 04:42 AM 53.78 52.16 50.90 76.46 53.60 90.0 Not Reported 3.36 W 3.80 W 7.38 W x x Other     x x x x x 1.24 Clear
04/18/2019 04:43 AM 53.96 52.34 51.26 76.46 53.60 90.0 Not Reported 2.91 NW 2.68 W 7.38 W x x Other     x x x x x 1.24 Clear
04/18/2019 04:44 AM 54.14 52.52 51.26 76.46 53.60 90.0 Not Reported 2.24 W 0.89 N 7.38 W x x Other     x x x x x 1.24 Clear
04/18/2019 04:45 AM 54.14 52.52 51.08 76.46 53.60 89.0 Not Reported 1.79 E 1.12 E 7.38 W x x Other     x x x x x 1.24 Clear
04/18/2019 04:46 AM 54.32 52.52 51.08 76.46 53.60 89.0 Not Reported 1.79 E 1.12 E 7.38 W x x Other     x x x x x 1.24 Clear
04/18/2019 04:47 AM 54.32 52.52 51.08 76.46 53.60 89.0 Not Reported 2.01 E 1.79 E 7.38 W x x Other     x x x x x 1.24 Clear
04/18/2019 04:48 AM 54.14 52.52 51.08 76.46 53.60 89.0 Not Reported 2.01 E 2.01 E 7.38 W x x Other     x x x x x 1.24 Clear
04/18/2019 04:49 AM 54.32 52.52 51.08 76.46 53.60 88.0 Not Reported 1.57 E 0.67 E 6.49 W x x Other     x x x x x 1.24 Clear
04/18/2019 04:50 AM 54.32 52.52 51.08 76.46 53.60 88.0 Not Reported 1.34 E 1.12 N 6.49 W x x Other     x x x x x 1.24 Clear
04/18/2019 04:51 AM 54.32 52.52 51.08 76.46 53.60 88.0 Not Reported 1.57 E 1.79 E 5.14 W x x Other     x x x x x 1.24 Clear
04/18/2019 04:52 AM 54.50 52.52 51.08 76.46 53.60 88.0 Not Reported 1.79 E 1.12 SE 5.14 W x x Other     x x x x x 1.24 Clear
04/18/2019 04:53 AM 54.50 52.52 50.90 76.46 53.60 88.0 Not Reported 1.34 E 0.89 E 4.25 E x x Other     x x x x x 1.24 Clear
04/18/2019 04:54 AM 54.50 52.52 50.90 76.46 53.60 88.0 Not Reported 1.12 NE 3.13 W 4.25 E x x Other     x x x x x 1.24 Clear
04/18/2019 04:55 AM 54.50 52.52 50.90 76.46 53.60 88.0 Not Reported 2.01 W 2.91 W 4.25 E x x Other     x x x x x 1.24 Clear
04/18/2019 04:56 AM 54.50 52.52 50.90 76.46 53.60 87.0 Not Reported 2.68 W 1.79 W 4.25 NW x x Other     x x x x x 1.24 Clear
04/18/2019 04:57 AM 54.68 52.52 50.90 76.46 53.60 87.0 Not Reported 2.01 W 1.34 SW 4.25 NW x x Other     x x x x x 1.24 Clear
04/18/2019 04:58 AM 54.68 52.52 50.90 76.46 53.60 87.0 Not Reported 2.24 W 3.36 W 8.72 NW x x Other     x x x x x 1.24 Clear
04/18/2019 05:00 AM 54.50 52.52 50.90 76.46 53.60 87.0 Not Reported 2.01 SW 0.67 SW 8.72 NW x x Other     x x x x x 1.24 Clear
04/18/2019 05:01 AM 54.50 52.52 50.90 76.46 53.60 87.0 Not Reported 1.34 W 2.01 W 8.72 NW x x Other     x x x x x 1.24 Clear
04/18/2019 05:02 AM 54.32 52.52 50.90 76.46 53.60 88.0 Not Reported 1.79 W 3.36 NW 8.72 NW x x Other     x x x x x 1.24 Clear
04/18/2019 05:03 AM 54.32 52.52 50.90 76.46 53.60 88.0 Not Reported 1.79 W 1.57 W 8.72 NW x x Other     x x x x x 1.24 Clear
04/18/2019 05:04 AM 54.32 52.52 50.90 76.46 53.60 88.0 Not Reported 2.24 W 2.68 W 8.72 NW x x Other     x x x x x 1.24 Clear
04/18/2019 05:05 AM 54.50 52.52 51.08 76.46 53.60 87.0 Not Reported 2.68 W 3.13 W 8.72 NW x x Other     x x x x x 1.24 Clear
04/18/2019 05:06 AM 54.68 52.70 50.90 76.46 53.60 87.0 Not Reported 2.46 W 2.24 E 8.72 NW x x Other     x x x x x 1.24 Clear
04/18/2019 05:07 AM 54.86 52.70 50.90 76.46 53.60 86.0 Not Reported 2.46 E 2.68 E 8.72 NW x x Other     x x x x x 1.24 Clear
04/18/2019 05:08 AM 54.68 52.52 50.54 76.46 53.60 86.0 Not Reported 3.13 E 4.47 E 4.70 W x x Other     x x x x x 1.24 Clear
04/18/2019 05:09 AM 54.50 52.16 50.36 76.46 53.60 86.0 Not Reported 3.58 E 4.47 E 4.70 E x x Other     x x x x x 1.24 Clear
04/18/2019 05:10 AM 53.96 51.80 50.00 76.46 53.60 86.0 Not Reported 4.03 E 4.03 E 4.70 E x x Other     x x x x x 1.24 Clear
04/18/2019 05:11 AM 53.24 51.44 49.82 76.46 53.24 87.0 Not Reported 4.25 E 4.47 E 4.92 E x x Other     x x x x x 1.24 Clear
04/18/2019 05:12 AM 53.06 51.44 50.18 76.46 53.06 89.0 Not Reported 4.47 E 5.14 E 6.04 E x x Other     x x x x x 1.24 Clear
04/18/2019 05:13 AM 53.06 51.62 50.36 76.46 53.06 90.0 Not Reported 4.70 E 3.80 E 6.04 E x x Other     x x x x x 1.24 Clear
04/18/2019 05:14 AM 53.06 51.62 50.54 76.46 53.06 91.0 Not Reported 4.25 E 5.37 E 6.04 E x x Other     x x x x x 1.24 Clear
04/18/2019 05:15 AM 53.06 51.80 50.72 76.46 53.06 91.0 Not Reported 4.03 E 3.80 E 6.04 E x x Other     x x x x x 1.24 Clear
04/18/2019 05:16 AM 53.06 51.62 50.36 76.46 53.06 91.0 Not Reported 4.25 E 4.70 NE 6.04 E x x Other     x x x x x 1.24 Clear
04/18/2019 05:17 AM 52.88 51.44 50.36 76.46 52.88 91.0 Not Reported 4.47 E 4.70 E 6.04 E x x Other     x x x x x 1.24 Clear
04/18/2019 05:18 AM 52.88 51.62 50.36 76.46 52.88 91.0 Not Reported 4.70 E 5.37 E 6.04 E x x Other     x x x x x 1.24 Clear
04/18/2019 05:19 AM 52.88 51.44 50.36 76.46 52.88 91.0 Not Reported 4.70 E 5.37 E 6.04 E x x Other     x x x x x 1.24 Clear
04/18/2019 05:20 AM 52.88 51.44 50.36 76.46 52.88 91.0 Not Reported 5.14 E 5.37 E 6.26 E x x Other     x x x x x 1.24 Clear
04/18/2019 05:21 AM 52.88 51.44 50.18 76.46 52.88 90.0 Not Reported 4.92 E 3.80 E 6.26 E x x Other     x x x x x 1.24 Clear
04/18/2019 05:22 AM 53.06 51.62 50.36 76.46 52.88 90.0 Not Reported 3.80 E 3.13 E 6.26 E x x Other     x x x x x 1.24 Clear
04/18/2019 05:23 AM 53.06 51.62 50.36 76.46 52.88 90.0 Not Reported 3.13 E 3.36 E 6.26 E x x Other     x x x x x 1.24 Clear
04/18/2019 05:24 AM 53.24 51.62 50.36 76.46 52.88 90.0 Not Reported 3.13 E 2.91 E 6.26 E x x Other     x x x x x 1.24 Clear
04/18/2019 05:25 AM 53.42 51.80 50.54 76.46 52.88 90.0 Not Reported 3.13 E 2.24 E 6.26 E x x Other     x x x x x 1.24 Clear
04/18/2019 05:26 AM 53.60 51.98 50.54 76.46 52.88 89.0 Not Reported 3.13 E 3.58 E 6.26 E x x Other     x x x x x 1.24 Clear
04/18/2019 05:27 AM 53.78 51.80 50.18 76.46 52.88 88.0 Not Reported 3.58 E 4.25 NE 6.26 E x x Other     x x x x x 1.24 Clear
04/18/2019 05:28 AM 53.60 51.80 50.18 76.46 52.88 88.0 Not Reported 4.03 E 4.47 E 6.26 E x x Other     x x x x x 1.24 Clear
04/18/2019 05:29 AM 53.60 51.62 50.00 76.46 52.88 88.0 Not Reported 4.25 E 5.37 E 6.26 E x x Other     x x x x x 1.24 Clear
04/18/2019 05:30 AM 53.24 51.44 49.82 76.46 52.88 88.0 Not Reported 4.47 E 4.25 E 6.04 E x x Other     x x x x x 1.24 Clear
04/18/2019 05:31 AM 53.06 51.26 49.82 76.46 52.88 88.0 Not Reported 4.70 E 4.47 E 6.04 E x x Other     x x x x x 1.24 Clear
04/18/2019 05:32 AM 53.06 51.26 50.00 76.46 52.88 89.0 Not Reported 4.70 E 5.37 E 6.26 E x x Other     x x x x x 1.24 Clear
04/18/2019 05:33 AM 53.06 51.44 50.00 76.46 52.88 89.0 Not Reported 4.92 E 4.70 E 6.26 E x x Other     x x x x x 1.24 Clear
04/18/2019 05:34 AM 53.06 51.44 50.00 76.46 52.88 89.0 Not Reported 4.70 E 4.70 E 6.26 E x x Other     x x x x x 1.24 Clear
04/18/2019 05:35 AM 53.06 51.44 50.18 76.46 52.88 90.0 Not Reported 4.47 E 4.47 E 6.26 E x x Other     x x x x x 1.24 Clear
04/18/2019 05:36 AM 53.24 51.62 50.36 76.46 52.88 90.0 Not Reported 4.47 E 4.03 E 6.71 E x x Other     x x x x x 1.24 Clear
04/18/2019 05:37 AM 53.24 51.62 50.18 76.46 52.88 89.0 Not Reported 4.25 E 3.13 E 6.71 E x x Other     x x x x x 1.24 Clear
04/18/2019 05:38 AM 53.24 51.62 50.18 76.46 52.88 89.0 Not Reported 3.58 E 2.91 E 6.71 E x x Other     x x x x x 1.24 Clear
04/18/2019 05:39 AM 53.24 51.62 50.18 76.46 52.88 89.0 Not Reported 3.58 E 4.47 E 6.71 E x x Other     x x x x x 1.24 Clear
04/18/2019 05:40 AM 53.24 51.62 50.18 76.46 52.88 89.0 Not Reported 4.03 E 4.25 E 6.71 E x x Other     x x x x x 1.24 Clear
04/18/2019 05:41 AM 53.24 51.62 50.18 76.46 52.88 89.0 Not Reported 3.80 E 3.13 E 6.71 E x x Other     x x x x x 1.24 Clear
04/18/2019 05:42 AM 53.24 51.44 50.00 76.46 52.88 89.0 Not Reported 4.03 E 4.92 E 6.71 E x x Other     x x x x x 1.24 Clear
04/18/2019 05:43 AM 53.06 51.44 50.00 76.46 52.88 89.0 Not Reported 4.47 E 2.24 N 6.71 E x x Other     x x x x x 1.24 Clear
04/18/2019 05:44 AM 53.24 51.62 50.18 76.46 52.88 89.0 Not Reported 4.25 E 3.58 E 6.71 E x x Other     x x x x x 1.24 Clear
04/18/2019 05:45 AM 53.06 51.44 50.00 76.46 52.88 89.0 Not Reported 3.80 E 2.24 E 6.71 E x x Other     x x x x x 1.24 Clear
04/18/2019 05:46 AM 53.06 51.44 50.00 76.46 52.88 89.0 Not Reported 3.58 NE 2.24 E 6.49 E x x Other     x x x x x 1.24 Clear
04/18/2019 05:47 AM 52.88 51.26 49.82 76.46 52.88 89.0 Not Reported 3.80 E 4.92 E 6.49 E x x Other     x x x x x 1.24 Clear
04/18/2019 05:48 AM 52.70 51.08 49.82 76.46 52.70 89.0 Not Reported 4.03 E 3.80 NE 6.49 E x x Other     x x x x x 1.24 Clear
04/18/2019 05:49 AM 52.70 51.26 50.00 76.46 52.70 90.0 Not Reported 4.03 E 3.36 E 6.49 E x x Other     x x x x x 1.24 Clear
04/18/2019 05:50 AM 52.88 51.44 50.18 76.46 52.70 90.0 Not Reported 3.58 E 1.12 SE 6.49 E x x Other     x x x x x 1.24 Clear
04/18/2019 05:51 AM 52.88 51.44 50.18 76.46 52.70 90.0 Not Reported 2.91 E 3.80 NE 6.49 E x x Other     x x x x x 1.24 Clear
04/18/2019 05:53 AM 53.06 51.62 50.18 76.46 52.70 90.0 Not Reported 3.13 E 2.91 NE 5.14 E x x Other     x x x x x 1.24 Clear
04/18/2019 05:54 AM 53.06 51.62 50.36 76.46 52.70 90.0 Not Reported 3.13 NE 3.80 E 5.14 E x x Other     x x x x x 1.24 Clear
04/18/2019 05:55 AM 53.06 51.44 50.18 76.46 52.70 90.0 Not Reported 3.36 NE 3.80 E 5.14 E x x Other     x x x x x 1.24 Clear
04/18/2019 05:56 AM 53.06 51.62 50.18 76.46 52.70 90.0 Not Reported 4.03 E 3.36 NE 5.14 E x x Other     x x x x x 1.24 Clear
04/18/2019 05:57 AM 53.06 51.62 50.36 76.46 52.70 90.0 Not Reported 4.03 NE 3.58 NE 5.14 E x x Other     x x x x x 1.24 Clear
04/18/2019 05:58 AM 53.06 51.62 50.18 76.46 52.70 90.0 Not Reported 3.58 NE 4.03 E 5.14 E x x Other     x x x x x 1.24 Clear
04/18/2019 05:59 AM 53.24 51.62 50.18 76.46 52.70 89.0 Not Reported 3.36 E 3.36 E 5.14 E x x Other     x x x x x 1.24 Clear
04/18/2019 06:00 AM 53.24 51.62 50.36 76.46 52.70 90.0 Not Reported 3.36 E 2.68 NE 5.14 E x x Other     x x x x x 1.24 Clear
04/18/2019 06:01 AM 53.24 51.80 50.54 76.46 52.70 90.0 Not Reported 3.13 E 3.58 E 5.14 E x x Other     x x x x x 1.24 Clear
04/18/2019 06:02 AM 53.42 51.80 50.54 76.46 52.70 90.0 Not Reported 2.91 E 3.58 E 5.14 E x x Other     x x x x x 1.24 Clear
04/18/2019 06:03 AM 53.42 51.80 50.54 76.46 52.70 90.0 Not Reported 2.68 E 1.12 NE 5.14 E x x Other     x x x x x 1.24 Clear
04/18/2019 06:04 AM 53.60 51.98 50.54 76.46 52.70 89.0 Not Reported 2.01 E 0.89 SE 5.14 E x x Other     x x x x x 1.24 Clear
04/18/2019 06:05 AM 53.78 51.98 50.72 76.46 52.70 89.0 Not Reported 2.01 E 4.25 E 5.14 E x x Other     x x x x x 1.24 Clear
04/18/2019 06:06 AM 53.78 51.98 50.54 76.46 52.70 89.0 Not Reported 2.68 E 2.91 E 4.92 E x x Other     x x x x x 1.24 Clear
04/18/2019 06:07 AM 53.78 51.98 50.54 76.46 52.70 88.0 Not Reported 2.46 E 2.24 E 4.92 E x x Other     x x x x x 1.24 Clear
04/18/2019 06:08 AM 53.96 52.16 50.72 76.46 52.70 88.0 Not Reported 2.01 E 2.91 NE 4.92 E x x Other     x x x x x 1.24 Clear
04/18/2019 06:09 AM 53.96 52.16 50.72 76.46 52.70 88.0 Not Reported 2.24 E 3.36 E 6.04 NW x x Other     x x x x x 1.24 Clear
04/18/2019 06:10 AM 53.96 52.16 50.54 76.46 52.70 88.0 Not Reported 2.46 E 2.46 E 6.04 NW x x Other     x x x x x 1.24 Clear
04/18/2019 06:11 AM 53.96 52.16 50.72 76.46 52.70 88.0 Not Reported 2.68 E 2.68 E 6.04 NW x x Other     x x x x x 1.24 Clear
04/18/2019 06:12 AM 54.14 52.34 50.72 76.46 52.70 88.0 Not Reported 2.68 E 1.57 NE 6.04 NW x x Other     x x x x x 1.24 Clear
04/18/2019 06:13 AM 54.32 52.34 50.72 76.46 52.70 88.0 Not Reported 3.36 E 4.70 E 6.04 NW x x Other     x x x x x 1.24 Clear
04/18/2019 06:14 AM 54.14 52.34 50.72 76.46 52.70 88.0 Not Reported 3.36 E 4.47 E 6.04 NW x x Other     x x x x x 1.24 Clear
04/18/2019 06:15 AM 54.14 52.16 50.54 76.46 52.70 87.0 Not Reported 3.36 E 4.03 E 6.04 NW x x Other     x x x x x 1.24 Clear
04/18/2019 06:16 AM 54.14 52.16 50.54 76.46 52.70 87.0 Not Reported 3.13 E 1.57 E 6.04 x x x Other     x x x x x 1.24 Clear
04/18/2019 06:17 AM 53.96 52.16 50.54 76.46 52.70 88.0 Not Reported 3.80 E 4.47 E 6.04 NW x x Other     x x x x x 1.24 Clear
04/18/2019 06:18 AM 54.14 52.16 50.54 76.46 52.70 88.0 Not Reported 4.70 E 3.58 E 6.49 E x x Other     x x x x x 1.24 Clear
04/18/2019 06:19 AM 54.14 52.16 50.54 76.46 52.70 88.0 Not Reported 4.47 E 4.92 E 6.49 E x x Other     x x x x x 1.24 Clear
04/18/2019 06:21 AM 54.32 52.34 50.72 76.46 52.70 87.0 Not Reported 3.80 E 3.36 E 6.49 E x x Other     x x x x x 1.24 Clear
04/18/2019 06:22 AM 54.32 52.34 50.72 76.46 52.70 87.0 Not Reported 3.13 E 3.58 NE 6.49 E x x Other     x x x x x 1.24 Clear
04/18/2019 06:23 AM 54.32 52.34 50.72 76.46 52.70 87.0 Not Reported 2.68 E 1.79 SW 6.49 E x x Other     x x x x x 1.24 Clear
04/18/2019 06:24 AM 54.32 52.34 50.72 76.46 52.70 87.0 Not Reported 2.24 E 3.58 SE 6.49 E x x Other     x x x x x 1.24 Clear
04/18/2019 06:25 AM 54.32 52.34 50.72 76.46 52.70 87.0 Not Reported 2.68 E 2.68 E 6.49 E x x Other     x x x x x 1.24 Clear
04/18/2019 06:26 AM 54.32 52.34 50.72 76.46 52.70 87.0 Not Reported 3.13 E 2.68 E 6.49 E x x Other     x x x x x 1.24 Clear
04/18/2019 06:27 AM 54.32 52.16 50.54 76.46 52.70 87.0 Not Reported 3.13 E 4.03 E 6.49 E x x Other     x x x x x 1.24 Clear
04/18/2019 06:28 AM 54.32 52.34 50.72 76.46 52.70 87.0 Not Reported 2.68 E 4.03 E 5.14 E x x Other     x x x x x 1.24 Clear
04/18/2019 06:29 AM 54.32 52.34 50.72 76.46 52.70 87.0 Not Reported 2.68 E 2.01 S 5.14 E x x Other     x x x x x 1.24 Clear
04/18/2019 06:30 AM 54.32 52.34 50.72 76.46 52.70 87.0 Not Reported 2.24 E 1.79 NW 5.14 E x x Other     x x x x x 1.24 Clear
04/18/2019 06:31 AM 54.50 52.34 50.72 76.46 52.70 87.0 Not Reported 1.79 E 2.01 W 5.14 E x x Other     x x x x x 1.24 Clear
04/18/2019 06:32 AM 54.50 52.34 50.72 76.46 52.70 87.0 Not Reported 1.79 NE 1.57 NW 5.14 E x x Other     x x x x x 1.24 Clear
04/18/2019 06:33 AM 54.50 52.52 50.72 76.46 52.70 87.0 Not Reported 2.01 E 2.91 E 5.14 E x x Other     x x x x x 1.24 Clear
04/18/2019 06:34 AM 54.68 52.52 50.90 76.46 52.70 87.0 Not Reported 2.24 E 0.67 SW 5.14 E x x Other     x x x x x 1.24 Clear
04/18/2019 06:35 AM 54.68 52.52 50.90 76.46 52.70 87.0 Not Reported 1.34 E 0.67 S 5.14 E x x Other     x x x x x 1.24 Clear
04/18/2019 06:36 AM 54.68 52.52 50.72 76.46 52.70 86.0 Not Reported 1.12 SE 2.01 SW 5.14 E x x Other     x x x x x 1.24 Clear
04/18/2019 06:37 AM 54.68 52.70 50.90 76.46 52.70 87.0 Not Reported 1.57 SE 2.91 SW 5.14 W x x Other     x x x x x 1.24 Clear
04/18/2019 06:38 AM 55.04 52.70 50.90 76.46 52.70 86.0 Not Reported 1.79 NE 0.67 E 5.14 W x x Other     x x x x x 1.24 Clear
04/18/2019 06:39 AM 55.22 52.88 50.90 76.46 52.70 86.0 Not Reported 2.01 E 0.89 E 5.14 W x x Other     x x x x x 1.24 Clear
04/18/2019 06:40 AM 55.22 52.70 50.90 76.46 52.70 85.0 Not Reported 2.24 E 0.67 N 5.14 E x x Other     x x x x x 1.24 Clear
04/18/2019 06:41 AM 55.22 52.70 50.90 76.46 52.70 85.0 Not Reported 3.13 E 5.82 E 5.82 E x x Other     x x x x x 1.24 Clear
04/18/2019 06:42 AM 55.22 52.70 50.72 76.46 52.70 85.0 Not Reported 3.58 E 3.36 E 5.82 E x x Other     x x x x x 1.24 Clear
04/18/2019 06:43 AM 55.04 52.70 50.72 76.46 52.70 85.0 Not Reported 3.13 E 2.46 NE 5.82 E x x Other     x x x x x 1.24 Clear
04/18/2019 06:44 AM 55.04 52.70 50.72 76.46 52.70 85.0 Not Reported 2.24 NE 2.01 NE 5.82 E x x Other     x x x x x 1.24 Clear
04/18/2019 06:45 AM 55.04 52.70 50.72 76.46 52.70 85.0 Not Reported 2.01 E 2.24 E 5.82 E x x Other     x x x x x 1.24 Clear
04/18/2019 06:46 AM 55.04 52.70 50.72 76.46 52.70 85.0 Not Reported 2.46 E 2.68 E 5.82 E x x Other     x x x x x 1.24 Clear
04/18/2019 06:48 AM 55.04 52.70 50.72 76.46 52.70 85.0 Not Reported 2.01 E 2.91 E 5.82 E x x Other     x x x x x 1.24 Clear
04/18/2019 06:49 AM 55.04 52.70 50.72 76.46 52.70 85.0 Not Reported 2.46 E 3.13 E 5.82 E x x Other     x x x x x 1.24 Clear
04/18/2019 06:50 AM 55.22 52.70 50.72 76.46 52.70 85.0 Not Reported 2.91 E 2.46 E 5.82 E x x Other     x x x x x 1.24 Clear
04/18/2019 06:51 AM 55.04 52.70 50.72 76.46 52.70 85.0 Not Reported 2.68 E 3.13 E 5.37 E x x Other     x x x x x 1.24 Clear
04/18/2019 06:52 AM 55.04 52.70 50.90 76.46 52.70 85.0 Not Reported 1.79 E 0.22 S 5.37 E x x Other     x x x x x 1.24 Clear
04/18/2019 06:53 AM 55.22 52.88 50.90 76.46 52.70 85.0 Not Reported 1.57 E 1.34 N 5.37 E x x Other     x x x x x 1.24 Clear
04/18/2019 06:54 AM 55.40 52.88 50.90 76.46 52.70 85.0 Not Reported 1.57 E 2.91 W 5.37 E x x Other     x x x x x 1.24 Clear
04/18/2019 06:55 AM 55.40 52.88 50.90 76.46 52.70 84.0 Not Reported 2.01 W 2.46 W 5.37 E x x Other     x x x x x 1.24 Clear
04/18/2019 06:56 AM 55.40 52.88 50.72 76.46 52.70 84.0 Not Reported 3.13 W 2.68 NW 5.37 E x x Other     x x x x x 1.24 Clear
04/18/2019 06:57 AM 55.22 52.70 50.72 76.46 52.70 84.0 Not Reported 3.36 W 6.71 W 5.14 N x x Other     x x x x x 1.24 Clear
04/18/2019 06:58 AM 55.22 52.70 50.72 76.46 52.70 85.0 Not Reported 2.91 W 0.45 NW 6.71 W x x Other     x x x x x 1.24 Clear
04/18/2019 06:59 AM 55.22 52.70 50.72 76.46 52.70 85.0 Not Reported 2.24 W 1.12 W 6.71 W x x Other     x x x x x 1.24 Clear
04/18/2019 07:00 AM 55.04 52.52 50.54 76.46 52.70 85.0 Not Reported 2.46 W 2.91 NW 6.71 W x x Other     x x x x x 1.24 Clear
04/18/2019 07:01 AM 55.04 52.70 50.72 76.46 52.70 85.0 Not Reported 3.13 W 1.79 W 6.71 W x x Other     x x x x x 1.24 Clear
04/18/2019 07:02 AM 55.22 52.70 50.72 76.46 52.70 85.0 Not Reported 2.24 W 2.24 W 6.71 W x x Other     x x x x x 1.24 Clear
04/18/2019 07:03 AM 55.04 52.70 50.72 76.46 52.70 85.0 Not Reported 1.12 W 1.57 W 6.71 W x x Other     x x x x x 1.24 Clear
04/18/2019 07:04 AM 55.04 52.52 50.72 76.46 52.70 85.0 Not Reported 1.34 W 1.57 SW 6.71 W x x Other     x x x x x 1.24 Clear
04/18/2019 07:05 AM 54.68 52.52 50.72 76.46 52.70 86.0 Not Reported 1.34 SW 1.34 W 6.71 W x x Other     x x x x x 1.24 Clear
04/18/2019 07:06 AM 54.50 52.52 50.90 76.46 52.70 87.0 Not Reported 1.34 SW 2.46 W 6.71 W x x Other     x x x x x 1.24 Clear
04/18/2019 07:07 AM 54.50 52.52 51.08 76.46 52.70 88.0 Not Reported 1.34 SW 2.24 W 5.37 W x x Other     x x x x x 1.24 Clear
04/18/2019 07:08 AM 54.50 52.70 51.08 76.46 52.70 88.0 Not Reported 1.12 SW 0.45 W 4.92 NW x x Other     x x x x x 1.24 Clear
04/18/2019 07:09 AM 54.86 52.88 51.26 76.46 52.70 88.0 Not Reported 1.79 W 0.00 W 4.92 NW x x Other     x x x x x 1.24 Clear
04/18/2019 07:10 AM 55.04 53.06 51.44 76.46 52.70 88.0 Not Reported 2.46 W 1.34 NW 4.70 W x x Other     x x x x x 1.24 Clear
04/18/2019 07:11 AM 55.22 53.24 51.62 76.46 52.70 87.0 Not Reported 2.24 W 2.91 NW 4.70 W x x Other     x x x x x 1.24 Clear
04/18/2019 07:12 AM 55.40 53.24 51.62 76.46 52.70 87.0 Not Reported 2.01 W 1.57 SW 4.70 W x x Other     x x x x x 1.24 Clear
04/18/2019 07:13 AM 55.40 53.42 51.62 76.46 52.70 86.0 Not Reported 2.01 S 1.12 NW 4.70 W x x Other     x x x x x 1.24 Clear
04/18/2019 07:14 AM 55.76 53.42 51.62 76.46 52.70 86.0 Not Reported 1.79 SE 2.24 NW 4.70 W x x Other     x x x x x 1.24 Clear
04/18/2019 07:15 AM 55.76 53.60 51.62 76.46 52.70 85.0 Not Reported 2.01 NW 3.36 SW 4.70 W x x Other     x x x x x 1.24 Clear
04/18/2019 07:16 AM 55.94 53.60 51.62 76.46 52.70 85.0 Not Reported 2.01 W 1.12 S 4.70 W x x Other     x x x x x 1.24 Clear
04/18/2019 07:17 AM 55.94 53.60 51.62 76.46 52.70 85.0 Not Reported 1.79 W 0.67 W 4.70 W x x Other     x x x x x 1.24 Clear
04/18/2019 07:18 AM 56.12 53.60 51.62 76.46 52.70 85.0 Not Reported 1.79 W 2.24 SW 4.70 W x x Other     x x x x x 1.24 Clear
04/18/2019 07:19 AM 55.94 53.60 51.62 76.46 52.70 85.0 Not Reported 1.57 W 1.57 NW 4.70 W x x Other     x x x x x 1.24 Clear
04/18/2019 07:20 AM 55.94 53.60 51.62 76.46 52.70 85.0 Not Reported 2.01 E 2.24 SW 4.92 NW x x Other     x x x x x 1.24 Clear
04/18/2019 07:21 AM 56.12 53.60 51.62 76.46 52.70 85.0 Not Reported 2.24 SW 2.01 SW 4.92 NW x x Other     x x x x x 1.24 Clear
04/18/2019 07:22 AM 56.30 53.60 51.62 76.46 52.70 84.0 Not Reported 2.01 S 3.58 W 5.14 W x x Other     x x x x x 1.24 Clear
04/18/2019 07:23 AM 56.30 53.78 51.80 76.46 52.70 84.0 Not Reported 2.01 S 1.57 SW 5.14 W x x Other     x x x x x 1.24 Clear
04/18/2019 07:24 AM 56.30 53.60 51.62 76.46 52.70 84.0 Not Reported 1.79 S 2.68 SE 5.14 W x x Other     x x x x x 1.24 Clear
04/18/2019 07:25 AM 56.48 53.60 51.62 76.46 52.70 84.0 Not Reported 1.34 S 0.67 SW 5.14 W x x Other     x x x x x 1.24 Clear
04/18/2019 07:26 AM 56.66 53.78 51.62 76.46 52.70 83.0 Not Reported 1.34 S 1.57 S 5.14 W x x Other     x x x x x 1.24 Clear
04/18/2019 07:27 AM 56.66 53.78 51.62 76.46 52.70 83.0 Not Reported 1.57 SE 2.01 SE 5.14 W x x Other     x x x x x 1.24 Clear
04/18/2019 07:28 AM 56.84 53.96 51.62 76.46 52.70 82.0 Not Reported 1.79 S 1.57 S 5.14 W x x Other     x x x x x 1.24 Clear
04/18/2019 07:29 AM 57.02 53.96 51.62 76.46 52.70 82.0 Not Reported 1.79 S 1.34 SW 5.14 W x x Other     x x x x x 1.24 Clear
04/18/2019 07:30 AM 57.02 53.96 51.62 76.46 52.70 82.0 Not Reported 1.79 SE 1.57 SE 5.14 W x x Other     x x x x x 1.24 Clear
04/18/2019 07:31 AM 57.02 53.96 51.62 76.46 52.70 82.0 Not Reported 1.34 SE 0.89 SE 5.14 W x x Other     x x x x x 1.24 Clear
04/18/2019 07:32 AM 57.20 54.14 51.80 76.46 52.70 82.0 Not Reported 0.89 SE 3.58 NW 3.58 NW x x Other     x x x x x 1.24 Clear
04/18/2019 07:33 AM 57.20 54.14 51.80 76.46 52.70 82.0 Not Reported 1.57 W 0.22 N 3.58 NW x x Other     x x x x x 1.24 Clear
04/18/2019 07:34 AM 57.38 54.14 51.80 76.46 52.70 82.0 Not Reported 2.24 W 2.68 SW 5.37 NW x x Other     x x x x x 1.24 Clear
04/18/2019 07:35 AM 57.56 54.32 51.80 76.46 52.70 81.0 Not Reported 2.24 NW 2.01 NE 5.37 NW x x Other     x x x x x 1.24 Clear
04/18/2019 07:36 AM 57.56 54.32 51.80 76.46 52.70 81.0 Not Reported 1.57 NW 2.46 SW 5.37 NW x x Other     x x x x x 1.24 Clear
04/18/2019 07:37 AM 57.74 54.32 51.80 76.46 52.70 81.0 Not Reported 1.79 N 2.46 NW 5.37 NW x x Other     x x x x x 1.24 Clear
04/18/2019 07:38 AM 57.74 54.32 51.80 76.46 52.70 80.0 Not Reported 2.24 W 3.36 W 5.37 NW x x Other     x x x x x 1.24 Clear
04/18/2019 07:39 AM 57.74 54.32 51.80 76.46 52.70 80.0 Not Reported 2.46 SW 1.57 W 5.37 W x x Other     x x x x x 1.24 Clear
04/18/2019 07:40 AM 57.92 54.50 51.98 76.46 52.70 80.0 Not Reported 2.01 SW 2.46 SW 5.37 W x x Other     x x x x x 1.24 Clear
04/18/2019 07:41 AM 58.10 54.68 51.98 76.46 52.70 80.0 Not Reported 1.79 SW 2.46 W 5.37 W x x Other     x x x x x 1.24 Clear
04/18/2019 07:42 AM 58.10 54.68 51.98 76.46 52.70 79.0 Not Reported 3.36 W 3.36 NW 6.49 W x x Other     x x x x x 1.24 Clear
04/18/2019 07:43 AM 58.28 54.68 51.98 76.46 52.70 79.0 Not Reported 3.58 W 0.89 SE 6.49 W x x Other     x x x x x 1.24 Clear
04/18/2019 07:44 AM 58.46 54.86 52.16 76.46 52.70 79.0 Not Reported 2.46 W 2.46 W 6.49 W x x Other     x x x x x 1.24 Clear
04/18/2019 07:45 AM 58.46 54.86 52.16 76.46 52.70 79.0 Not Reported 2.24 W 4.03 NW 6.49 W x x Other     x x x x x 1.24 Clear
04/18/2019 07:46 AM 58.46 54.86 51.98 76.46 52.70 79.0 Not Reported 3.13 NW 3.58 NW 6.93 NW x x Other     x x x x x 1.24 Clear
04/18/2019 07:47 AM 58.64 54.86 52.16 76.46 52.70 79.0 Not Reported 3.80 NW 2.68 N 6.93 NW x x Other     x x x x x 1.24 Clear
04/18/2019 07:48 AM 58.82 54.86 51.98 76.46 52.70 78.0 Not Reported 2.46 W 1.34 S 6.93 NW x x Other     x x x x x 1.24 Clear
04/18/2019 07:49 AM 58.82 54.86 51.80 76.46 52.70 77.0 Not Reported 1.34 SE 0.89 SE 6.93 NW x x Other     x x x x x 1.24 Clear
04/18/2019 07:50 AM 58.82 54.86 51.80 76.46 52.70 77.0 Not Reported 1.57 S 0.89 NE 6.93 NW x x Other     x x x x x 1.24 Clear
04/18/2019 07:51 AM 59.00 55.04 51.80 76.46 52.70 77.0 Not Reported 1.34 SE 1.12 SE 6.93 NW x x Other     x x x x x 1.24 Clear
04/18/2019 07:52 AM 59.18 55.04 51.98 76.46 52.70 77.0 Not Reported 1.34 E 2.68 S 6.93 NW x x Other     x x x x x 1.24 Clear
04/18/2019 07:53 AM 59.36 55.04 51.98 76.46 52.70 77.0 Not Reported 2.01 W 2.46 W 6.93 NW x x Other     x x x x x 1.24 Clear
04/18/2019 07:54 AM 59.36 55.22 51.98 76.46 52.70 76.0 Not Reported 3.13 NW 3.58 NW 6.93 NW x x Other     x x x x x 1.24 Clear
04/18/2019 07:55 AM 59.54 55.40 52.16 76.46 52.70 76.0 Not Reported 2.91 W 1.34 W 6.93 NW x x Other     x x x x x 1.24 Clear
04/18/2019 07:56 AM 59.72 55.58 52.52 76.46 52.70 76.0 Not Reported 1.79 W 0.67 W 5.82 NW x x Other     x x x x x 1.24 Clear
04/18/2019 07:57 AM 59.90 55.76 52.70 76.46 52.70 77.0 Not Reported 1.79 W 0.89 S 5.82 NW x x Other     x x x x x 1.24 Clear
04/18/2019 07:58 AM 60.08 55.94 53.06 76.46 52.70 77.0 Not Reported 1.57 W 0.67 SE 5.82 NW x x Other     x x x x x 1.24 Clear
04/18/2019 07:59 AM 60.26 56.30 53.42 76.46 52.70 78.0 Not Reported 1.57 NE 3.58 E 5.82 NW x x Other     x x x x x 1.24 Clear
04/18/2019 08:00 AM 60.44 56.30 53.42 76.46 52.70 78.0 Not Reported 1.79 E 1.57 SW 5.82 NW x x Other     x x x x x 1.24 Clear
04/18/2019 08:01 AM 60.44 56.30 53.60 76.46 52.70 78.0 Not Reported 2.01 W 1.79 NW 5.82 NW x x Other     x x x x x 1.24 Clear
04/18/2019 08:02 AM 60.44 56.48 53.60 76.46 52.70 78.0 Not Reported 2.01 W 0.67 NW 5.82 NW x x Other     x x x x x 1.24 Clear
04/18/2019 08:03 AM 60.44 56.48 53.78 76.46 52.70 78.0 Not Reported 1.57 NE 2.46 NE 5.82 NW x x Other     x x x x x 1.24 Clear
04/18/2019 08:04 AM 60.62 56.66 53.78 76.46 52.70 78.0 Not Reported 1.79 E 1.12 E 4.70 W x x Other     x x x x x 1.24 Clear
04/18/2019 08:05 AM 60.62 56.84 53.96 76.46 52.70 78.0 Not Reported 2.68 E 2.91 E 4.92 E x x Other     x x x x x 1.24 Clear
04/18/2019 08:06 AM 60.80 56.84 54.14 76.46 52.70 79.0 Not Reported 2.91 NE 2.01 N 4.92 E x x Other     x x x x x 1.24 Clear
04/18/2019 08:07 AM 60.80 57.02 54.32 76.46 52.70 79.0 Not Reported 2.91 E 4.03 E 4.92 E x x Other     x x x x x 1.24 Clear
04/18/2019 08:08 AM 60.80 57.02 54.32 76.46 52.70 79.0 Not Reported 3.36 E 3.58 E 4.92 E x x Other     x x x x x 1.24 Clear
04/18/2019 08:09 AM 60.98 57.02 54.32 76.46 52.70 79.0 Not Reported 3.36 E 1.57 E 5.37 E x x Other     x x x x x 1.24 Clear
04/18/2019 08:10 AM 60.98 57.02 54.32 76.46 52.70 79.0 Not Reported 2.91 E 3.80 E 5.37 E x x Other     x x x x x 1.24 Clear
04/18/2019 08:11 AM 61.16 57.02 54.32 76.46 52.70 78.0 Not Reported 3.13 E 2.68 NE 5.82 E x x Other     x x x x x 1.24 Clear
04/18/2019 08:12 AM 61.16 57.20 54.50 76.46 52.70 78.0 Not Reported 2.91 E 2.01 NE 5.82 E x x Other     x x x x x 1.24 Clear
04/18/2019 08:13 AM 61.34 57.20 54.32 76.46 52.70 77.0 Not Reported 2.68 E 4.03 NE 5.82 E x x Other     x x x x x 1.24 Clear
04/18/2019 08:14 AM 61.34 57.02 54.14 76.46 52.70 77.0 Not Reported 2.91 E 3.13 NE 5.82 E x x Other     x x x x x 1.24 Clear
04/18/2019 08:15 AM 61.34 57.02 54.14 76.46 52.70 77.0 Not Reported 3.13 E 2.24 NE 5.82 E x x Other     x x x x x 1.24 Clear
04/18/2019 08:16 AM 61.52 57.20 54.14 76.46 52.70 77.0 Not Reported 3.13 E 4.70 E 5.82 E x x Other     x x x x x 1.24 Clear
04/18/2019 08:17 AM 61.88 57.38 54.32 76.46 52.70 76.0 Not Reported 3.36 E 3.13 E 5.82 E x x Other     x x x x x 1.24 Clear
04/18/2019 08:18 AM 62.06 57.38 54.14 76.46 52.70 75.0 Not Reported 2.24 NE 2.68 S 5.82 E x x Other     x x x x x 1.24 Clear
04/18/2019 08:19 AM 62.06 57.38 54.14 76.46 52.70 75.0 Not Reported 2.24 E 2.91 E 5.82 E x x Other     x x x x x 1.24 Clear
04/18/2019 08:20 AM 62.24 57.38 53.96 76.46 52.70 74.0 Not Reported 2.68 E 0.22 N 5.82 E x x Other     x x x x x 1.24 Clear
04/18/2019 08:21 AM 62.24 57.38 53.96 76.46 52.70 74.0 Not Reported 2.24 E 3.58 E 5.82 E x x Other     x x x x x 1.24 Clear
04/18/2019 08:22 AM 62.24 57.38 54.14 76.46 52.70 74.0 Not Reported 1.34 E 1.57 SW 5.82 E x x Other     x x x x x 1.24 Clear
04/18/2019 08:23 AM 62.24 57.20 53.78 76.46 52.70 73.0 Not Reported 1.12 SW 1.12 NW 5.82 E x x Other     x x x x x 1.24 Clear
04/18/2019 08:24 AM 62.42 57.38 53.78 76.46 52.70 73.0 Not Reported 1.34 NW 2.01 S 5.82 E x x Other     x x x x x 1.24 Clear
04/18/2019 08:25 AM 62.60 57.20 53.60 76.46 52.70 72.0 Not Reported 1.34 SW 1.79 W 5.82 E x x Other     x x x x x 1.24 Clear
04/18/2019 08:26 AM 62.78 57.56 53.78 76.46 52.70 72.0 Not Reported 1.57 S 1.34 S 4.92 NE x x Other     x x x x x 1.24 Clear
04/18/2019 08:27 AM 62.78 57.02 53.06 76.46 52.70 71.0 Not Reported 1.79 SW 1.12 S 4.70 E x x Other     x x x x x 1.24 Clear
04/18/2019 08:28 AM 62.60 57.02 52.88 76.46 52.70 70.0 Not Reported 1.57 S 5.14 W 5.14 NW x x Other     x x x x x 1.24 Clear
04/18/2019 08:29 AM 62.60 56.84 52.52 76.46 52.70 69.0 Not Reported 2.01 NW 3.13 S 5.14 NW x x Other     x x x x x 1.24 Clear
04/18/2019 08:30 AM 62.60 56.66 52.34 76.46 52.70 69.0 Not Reported 2.46 SE 4.47 SE 5.14 NW x x Other     x x x x x 1.24 Clear
04/18/2019 08:38 AM 62.96 56.84 x x x 68.0 Not Reported x SW 2.68 SE x x x x Unknown     x x x x x 1.24 Clear
04/18/2019 08:39 AM 63.14 56.84 52.34 76.46 52.70 68.0 Not Reported 2.68 SE 2.24 S 5.59 W x x Other     x x x x x 1.24 Clear
04/18/2019 08:40 AM 62.96 57.02 52.70 76.46 52.70 69.0 Not Reported 2.46 S 0.67 S 5.59 W x x Other     x x x x x 1.24 Clear
04/18/2019 08:41 AM 63.14 57.20 53.06 76.46 52.70 69.0 Not Reported 1.79 S 1.57 N 5.59 NW x x Other     x x x x x 1.24 Clear
04/18/2019 08:42 AM 63.32 57.20 52.88 76.46 52.70 68.0 Not Reported 1.79 W 0.67 SW 5.37 SE x x Other     x x x x x 1.24 Clear
04/18/2019 08:43 AM 63.32 57.20 52.88 76.46 52.70 68.0 Not Reported 2.01 S 1.79 W 4.92 SE x x Other     x x x x x 1.24 Clear
04/18/2019 08:44 AM 63.50 57.20 52.88 76.46 52.70 68.0 Not Reported 2.01 S 2.91 S 4.70 W x x Other     x x x x x 1.24 Clear
04/18/2019 08:45 AM 63.68 57.38 53.06 76.46 52.70 68.0 Not Reported 2.46 S 2.68 SE 4.70 W x x Other     x x x x x 1.24 Clear
04/18/2019 08:46 AM 63.68 57.38 52.88 76.46 52.70 67.0 Not Reported 2.68 SE 1.34 SW 4.70 W x x Other     x x x x x 1.24 Clear
04/18/2019 08:47 AM 63.68 57.20 52.88 76.46 52.70 68.0 Not Reported 2.46 SE 1.34 NW 4.70 W x x Other     x x x x x 1.24 Clear
04/18/2019 08:48 AM 63.50 57.38 53.24 76.46 52.70 69.0 Not Reported 2.24 NW 2.24 NE 4.70 W x x Other     x x x x x 1.24 Clear
04/18/2019 08:49 AM 63.50 57.38 53.06 76.46 52.70 68.0 Not Reported 2.46 NW 3.80 W 4.70 W x x Other     x x x x x 1.24 Clear
04/18/2019 08:50 AM 63.86 57.74 53.42 76.46 52.70 69.0 Not Reported 2.46 NE 1.34 SW 4.70 W x x Other     x x x x x 1.24 Clear
04/18/2019 08:51 AM 64.04 57.74 53.42 76.46 52.70 68.0 Not Reported 2.24 W 1.57 NW 4.92 NW x x Other     x x x x x 1.24 Clear
04/18/2019 08:52 AM 64.22 57.74 53.24 76.46 52.70 67.0 Not Reported 2.68 E 0.45 SW 4.92 NW x x Other     x x x x x 1.24 Clear
04/18/2019 08:53 AM 64.40 57.56 52.70 76.46 52.70 66.0 Not Reported 2.24 SE 3.13 W 4.92 NW x x Other     x x x x x 1.24 Clear
04/18/2019 08:54 AM 64.58 57.74 52.88 76.46 52.70 66.0 Not Reported 2.01 W 1.34 SE 4.92 NW x x Other     x x x x x 1.24 Clear
04/18/2019 08:55 AM 64.76 57.74 53.06 76.46 52.70 65.0 Not Reported 1.79 S 2.01 NW 4.92 NW x x Other     x x x x x 1.24 Clear
04/18/2019 08:56 AM 64.94 57.92 53.06 76.46 52.70 65.0 Not Reported 1.57 SE 2.68 NE 4.92 NW x x Other     x x x x x 1.24 Clear
04/18/2019 08:57 AM 64.94 58.10 53.24 76.46 52.70 65.0 Not Reported 2.24 E 1.57 SE 5.14 E x x Other     x x x x x 1.24 Clear
04/18/2019 08:58 AM 65.12 57.74 52.70 76.46 52.70 64.0 Not Reported 3.80 E 7.16 E 9.62 E x x Other     x x x x x 1.24 Clear
04/18/2019 08:59 AM 65.30 57.74 52.52 76.46 52.70 63.0 Not Reported 4.92 E 4.25 E 9.62 E x x Other     x x x x x 1.24 Clear
04/18/2019 09:00 AM 65.30 57.74 52.34 76.46 52.70 63.0 Not Reported 4.70 E 5.82 E 9.62 E x x Other     x x x x x 1.24 Clear
04/18/2019 09:01 AM 65.30 57.56 52.16 76.46 52.70 62.0 Not Reported 4.70 E 7.16 E 9.62 E x x Other     x x x x x 1.24 Clear
04/18/2019 09:02 AM 65.48 57.92 52.88 76.46 52.70 63.0 Not Reported 3.58 E 0.89 S 9.62 E x x Other     x x x x x 1.24 Clear
04/18/2019 09:03 AM 65.84 58.28 53.24 76.46 52.70 64.0 Not Reported 2.46 NW 1.34 NW 9.62 E x x Other     x x x x x 1.24 Clear
04/18/2019 09:04 AM 66.02 58.28 53.06 76.46 52.70 63.0 Not Reported 2.91 NW 4.25 NE 9.62 E x x Other     x x x x x 1.24 Clear
04/18/2019 09:05 AM 65.84 58.10 52.88 76.46 52.70 63.0 Not Reported 2.68 NE 3.13 NE 9.62 E x x Other     x x x x x 1.24 Clear
04/18/2019 09:06 AM 65.84 58.28 53.24 76.46 52.70 63.0 Not Reported 2.24 NE 2.24 E 9.62 E x x Other     x x x x x 1.24 Clear
04/18/2019 09:07 AM 66.02 58.28 53.06 76.46 52.70 63.0 Not Reported 2.46 E 2.24 E 9.62 E x x Other     x x x x x 1.24 Clear
04/18/2019 09:08 AM 65.66 57.92 52.52 76.46 52.70 62.0 Not Reported 2.01 SE 2.91 SW 7.38 E x x Other     x x x x x 1.24 Clear
04/18/2019 09:09 AM 65.30 57.92 52.88 76.46 52.70 64.0 Not Reported 1.79 SW 1.79 N 7.38 E x x Other     x x x x x 1.24 Clear
04/18/2019 09:10 AM 65.48 58.28 53.42 76.46 52.70 65.0 Not Reported 1.57 N 2.24 SE 7.16 E x x Other     x x x x x 1.24 Clear
04/18/2019 09:12 AM 66.02 58.64 53.60 76.46 52.70 64.0 Not Reported 2.24 SE 4.25 W 6.49 NW x x Other     x x x x x 1.24 Clear
04/18/2019 09:13 AM 66.20 58.46 53.42 76.46 52.70 63.0 Not Reported 2.91 SE 0.89 SW 6.49 NW x x Other     x x x x x 1.24 Clear
04/18/2019 09:14 AM 66.02 58.28 53.06 76.46 52.70 63.0 Not Reported 2.46 S 1.34 S 5.59 W x x Other     x x x x x 1.24 Clear
04/18/2019 09:15 AM 65.84 58.46 53.42 76.46 52.70 64.0 Not Reported 1.57 SE 1.79 SE 5.59 W x x Other     x x x x x 1.24 Clear
04/18/2019 09:16 AM 66.02 58.46 53.24 76.46 52.70 63.0 Not Reported 2.46 SE 5.59 W 5.59 W x x Other     x x x x x 1.24 Clear
04/18/2019 09:17 AM 66.20 58.46 53.42 76.46 52.70 63.0 Not Reported 3.13 E 2.46 SE 5.59 W x x Other     x x x x x 1.24 Clear
04/18/2019 09:18 AM 66.02 58.46 53.24 76.46 52.70 63.0 Not Reported 2.91 SE 3.58 SE 5.59 W x x Other     x x x x x 1.24 Clear
04/18/2019 09:19 AM 65.84 58.28 52.88 76.46 52.70 63.0 Not Reported 3.13 SE 5.14 SE 5.59 W x x Other     x x x x x 1.24 Clear
04/18/2019 09:20 AM 65.84 58.28 53.06 76.46 52.70 63.0 Not Reported 4.03 SE 3.36 SE 6.93 SW x x Other     x x x x x 1.24 Clear
04/18/2019 09:21 AM 66.02 58.46 53.42 76.46 52.70 64.0 Not Reported 3.80 E 1.12 E 6.93 SW x x Other     x x x x x 1.24 Clear
04/18/2019 09:22 AM 66.20 58.64 53.60 76.46 52.70 64.0 Not Reported 3.13 E 3.58 E 6.93 SW x x Other     x x x x x 1.24 Clear
04/18/2019 09:23 AM 66.38 58.46 53.06 76.46 52.70 62.0 Not Reported 2.91 E 1.57 E 6.93 SW x x Other     x x x x x 1.24 Clear
04/18/2019 09:24 AM 66.20 58.28 53.06 76.46 52.70 62.0 Not Reported 2.46 E 3.13 S 6.93 SW x x Other     x x x x x 1.24 Clear
04/18/2019 09:25 AM 66.38 58.64 53.42 76.46 52.70 63.0 Not Reported 2.24 S 3.80 S 6.93 SW x x Other     x x x x x 1.24 Clear
04/18/2019 09:26 AM 66.56 59.00 53.78 76.46 52.70 63.0 Not Reported 2.46 S 2.91 S 6.93 SW x x Other     x x x x x 1.24 Clear
04/18/2019 09:27 AM 66.92 58.82 53.24 76.46 52.70 61.0 Not Reported 2.46 S 3.58 W 6.93 SW x x Other     x x x x x 1.24 Clear
04/18/2019 09:28 AM 66.74 58.82 53.42 76.46 52.70 62.0 Not Reported 2.46 S 0.89 S 6.93 SW x x Other     x x x x x 1.24 Clear
04/18/2019 09:29 AM 66.92 59.00 53.60 76.46 52.70 62.0 Not Reported 1.79 S 2.46 S 6.93 SW x x Other     x x x x x 1.24 Clear
04/18/2019 09:30 AM 66.92 59.00 53.78 76.46 52.70 62.0 Not Reported 2.24 E 4.92 SE 6.49 SE x x Other     x x x x x 1.24 Clear
04/18/2019 09:31 AM 66.92 58.82 53.24 76.46 52.70 61.0 Not Reported 3.13 E 1.57 E 6.49 SE x x Other     x x x x x 1.24 Clear
04/18/2019 09:32 AM 66.74 58.64 53.06 76.46 52.70 61.0 Not Reported 2.46 N 0.22 SW 6.49 SE x x Other     x x x x x 1.24 Clear
04/18/2019 09:33 AM 66.92 58.82 53.42 76.46 52.70 62.0 Not Reported 1.34 SE 1.34 NE 6.49 SE x x Other     x x x x x 1.24 Clear
04/18/2019 09:34 AM 67.28 59.18 53.78 76.46 52.70 62.0 Not Reported 1.12 SE 1.12 SE 6.49 SE x x Other     x x x x x 1.24 Clear
04/18/2019 09:35 AM 67.28 59.18 53.60 76.46 52.70 61.0 Not Reported 1.79 SE 2.01 SE 6.49 SE x x Other     x x x x x 1.24 Clear
04/18/2019 09:36 AM 67.10 58.82 53.24 76.46 52.70 61.0 Not Reported 2.01 SE 2.24 S 6.49 SE x x Other     x x x x x 1.24 Clear
04/18/2019 09:37 AM 67.10 59.36 54.14 76.46 52.70 63.0 Not Reported 1.34 S 1.79 S 6.49 SE x x Other     x x x x x 1.24 Clear
04/18/2019 09:38 AM 67.28 59.36 54.14 76.46 52.70 62.0 Not Reported 1.34 S 2.01 S 6.49 SE x x Other     x x x x x 1.24 Clear
04/18/2019 09:39 AM 67.64 59.54 54.32 76.46 52.70 62.0 Not Reported 1.79 S 1.57 S 6.49 SE x x Other     x x x x x 1.24 Clear
04/18/2019 09:40 AM 67.82 59.54 54.14 76.46 52.70 61.0 Not Reported 2.24 SE 2.68 SE 4.92 N x x Other     x x x x x 1.24 Clear
04/18/2019 09:41 AM 67.46 59.00 53.42 76.46 52.70 60.0 Not Reported 2.24 SE 1.79 E 4.92 N x x Other     x x x x x 1.24 Clear
04/18/2019 09:43 AM 67.10 59.00 53.78 76.46 52.70 62.0 Not Reported 2.24 E 2.01 SW 5.37 W x x Other     x x x x x 1.24 Clear
04/18/2019 09:44 AM 67.10 59.36 54.32 76.46 52.70 63.0 Not Reported 2.68 S 2.01 S 5.37 W x x Other     x x x x x 1.24 Clear
04/18/2019 09:45 AM 67.46 59.72 54.50 76.46 52.70 63.0 Not Reported 2.24 S 2.46 S 5.37 W x x Other     x x x x x 1.24 Clear
04/18/2019 09:47 AM 67.82 59.72 54.50 76.46 52.70 62.0 Not Reported 1.79 S 2.01 SW 5.37 W x x Other     x x x x x 1.24 Clear
04/18/2019 09:48 AM 67.82 59.36 53.78 76.46 52.70 61.0 Not Reported 1.79 SW 2.01 SW 5.37 W x x Other     x x x x x 1.24 Clear
04/18/2019 09:49 AM 67.64 59.54 54.14 76.46 52.70 62.0 Not Reported 2.01 SW 3.58 SW 5.37 W x x Other     x x x x x 1.24 Clear
04/18/2019 09:50 AM 67.82 59.54 54.14 76.46 52.70 61.0 Not Reported 2.68 SW 2.91 SW 5.37 W x x Other     x x x x x 1.24 Clear
04/18/2019 09:51 AM 67.64 59.54 53.96 76.46 52.70 61.0 Not Reported 2.91 SW 1.79 S 5.37 W x x Other     x x x x x 1.24 Clear
04/18/2019 09:52 AM 67.64 59.72 54.32 76.46 52.70 62.0 Not Reported 2.01 SW 2.91 S 5.14 W x x Other     x x x x x 1.24 Clear
04/18/2019 09:53 AM 67.82 59.54 54.32 76.46 52.70 61.0 Not Reported 1.79 S 2.91 SE 3.80 SW x x Other     x x x x x 1.24 Clear
04/18/2019 09:54 AM 68.00 59.90 53.96 76.46 52.70 61.0 Not Reported 2.68 SE 2.46 SE 4.47 SE x x Other     x x x x x 1.24 Clear
04/18/2019 09:55 AM 68.36 59.90 54.32 76.46 52.70 60.0 Not Reported 2.46 SE 3.58 SE 4.47 SE x x Other     x x x x x 1.24 Clear
04/18/2019 09:56 AM 68.54 60.08 54.14 76.46 52.70 60.0 Not Reported 2.01 SE 1.57 SW 4.47 SE x x Other     x x x x x 1.24 Clear
04/18/2019 09:57 AM 68.54 60.08 54.32 76.46 52.70 60.0 Not Reported 1.57 SE 2.24 W 4.47 SE x x Other     x x x x x 1.24 Clear
04/18/2019 09:58 AM 68.72 59.54 54.50 76.46 52.70 59.0 Not Reported 2.24 W 3.80 W 5.37 NW x x Other     x x x x x 1.24 Clear
04/18/2019 09:59 AM 68.54 59.72 53.60 76.46 52.70 60.0 Not Reported 3.13 SW 2.01 SW 5.37 NW x x Other     x x x x x 1.24 Clear
04/18/2019 10:00 AM 68.36 60.08 54.14 76.46 52.70 61.0 Not Reported 2.46 SW 3.13 S 5.37 NW x x Other     x x x x x 1.24 Clear
04/18/2019 10:01 AM 68.54 60.08 54.50 76.46 52.70 61.0 Not Reported 2.46 S 2.24 S 5.37 NW x x Other     x x x x x 1.24 Clear
04/18/2019 10:02 AM 68.72 60.26 54.68 76.46 52.70 61.0 Not Reported 2.24 S 1.34 S 5.37 NW x x Other     x x x x x 1.24 Clear
04/18/2019 10:03 AM 69.08 59.90 53.78 76.46 52.70 58.0 Not Reported 2.01 S 1.12 S 5.37 NW x x Other     x x x x x 1.24 Clear
04/18/2019 10:04 AM 69.44 60.08 53.96 76.46 52.70 58.0 Not Reported 2.01 S 3.80 W 5.37 NW x x Other     x x x x x 1.24 Clear
04/18/2019 10:05 AM 69.62 60.08 53.78 76.46 52.70 57.0 Not Reported 1.79 SW 1.34 W 5.37 NW x x Other     x x x x x 1.24 Clear
04/18/2019 10:06 AM 69.44 60.26 54.14 76.46 52.70 58.0 Not Reported 1.57 SW 2.01 SW 5.37 NW x x Other     x x x x x 1.24 Clear
04/18/2019 10:07 AM 69.44 60.44 54.68 76.46 52.70 59.0 Not Reported 1.79 SW 2.01 SW 5.37 NW x x Other     x x x x x 1.24 Clear
04/18/2019 10:08 AM 69.26 59.72 53.60 76.46 52.70 57.0 Not Reported 2.68 SW 4.25 SW 4.47 SW x x Other     x x x x x 1.24 Clear
04/18/2019 10:09 AM 68.90 60.08 54.32 76.46 52.70 60.0 Not Reported 3.36 SW 2.91 SW 4.70 SW x x Other     x x x x x 1.24 Clear
04/18/2019 10:10 AM 68.90 60.62 55.22 76.46 52.70 62.0 Not Reported 3.36 SW 3.36 SW 4.70 SW x x Other     x x x x x 1.24 Clear
04/18/2019 10:11 AM 69.08 60.26 54.68 76.46 52.70 60.0 Not Reported 2.91 SW 4.03 SW 4.70 SW x x Other     x x x x x 1.24 Clear
04/18/2019 10:12 AM 69.26 60.44 54.50 76.46 52.70 59.0 Not Reported 3.36 SW 4.25 SW 4.70 SW x x Other     x x x x x 1.24 Clear
04/18/2019 10:13 AM 69.44 60.62 54.86 76.46 52.70 60.0 Not Reported 4.25 SW 4.47 SW 4.70 SW x x Other     x x x x x 1.24 Clear
04/18/2019 10:15 AM 69.80 60.44 54.50 76.46 52.70 58.0 Not Reported 3.58 SW 3.58 SW 4.70 SW x x Other     x x x x x 1.24 Clear
04/18/2019 10:16 AM 69.98 60.80 55.04 76.46 52.70 59.0 Not Reported 3.13 SW 3.58 SW 4.70 SW x x Other     x x x x x 1.24 Clear
04/18/2019 10:17 AM 69.98 60.62 54.50 76.46 52.70 58.0 Not Reported 3.13 SW 4.47 SW 4.70 SW x x Other     x x x x x 1.24 Clear
04/18/2019 10:18 AM 69.98 60.62 54.68 76.46 52.70 58.0 Not Reported 3.58 SW 3.36 SW 4.70 SW x x Other     x x x x x 1.24 Clear
04/18/2019 10:19 AM 69.98 60.80 55.04 76.46 52.70 59.0 Not Reported 3.36 SW 3.58 SW 4.70 SW x x Other     x x x x x 1.24 Clear
04/18/2019 10:20 AM 69.98 60.62 54.68 76.46 52.70 58.0 Not Reported 3.13 SW 2.91 SW 4.70 SW x x Other     x x x x x 1.24 Clear
04/18/2019 10:21 AM 69.98 60.62 54.50 76.46 52.70 58.0 Not Reported 3.36 SW 3.36 SW 4.70 SW x x Other     x x x x x 1.24 Clear
04/18/2019 10:22 AM 69.98 60.44 54.32 76.46 52.70 57.0 Not Reported 2.91 SW 2.24 SE 4.70 SW x x Other     x x x x x 1.24 Clear
04/18/2019 10:23 AM 69.98 60.62 54.68 76.46 52.70 58.0 Not Reported 1.79 S 2.46 S 4.70 SW x x Other     x x x x x 1.24 Clear
04/18/2019 10:24 AM 70.34 60.98 54.86 76.46 52.70 58.0 Not Reported 1.12 E 1.79 SW 4.70 SW x x Other     x x x x x 1.24 Clear
04/18/2019 10:26 AM 70.70 60.62 54.14 76.46 52.70 55.0 Not Reported 2.46 SW 3.13 SW 4.70 SW x x Other     x x x x x 1.24 Clear
04/18/2019 10:27 AM 70.88 60.26 53.24 76.46 52.70 53.0 Not Reported 2.91 SW 4.03 SW 4.70 SW x x Other     x x x x x 1.24 Clear
04/18/2019 10:28 AM 70.88 59.90 52.70 76.46 52.70 52.0 Not Reported 3.36 SW 4.03 SW 4.70 SW x x Other     x x x x x 1.24 Clear
04/18/2019 10:30 AM 71.06 60.62 53.78 76.46 52.70 54.0 Not Reported 2.91 SW 3.13 SW 4.70 SW x x Other     x x x x x 1.24 Clear
04/18/2019 10:31 AM 70.70 60.44 53.78 76.46 52.70 55.0 Not Reported 3.13 SW 2.91 SW 4.70 SW x x Other     x x x x x 1.24 Clear
04/18/2019 10:32 AM 70.52 60.26 53.42 76.46 52.70 55.0 Not Reported 2.91 SW 2.24 W 4.70 SW x x Other     x x x x x 1.24 Clear
04/18/2019 10:33 AM 70.52 59.90 52.88 76.46 52.70 53.0 Not Reported 2.68 W 2.68 W 4.70 SW x x Other     x x x x x 1.24 Clear
04/18/2019 10:34 AM 69.98 59.72 52.70 76.46 52.70 54.0 Not Reported 2.91 W 2.91 W 4.70 SW x x Other     x x x x x 1.24 Clear
04/18/2019 10:35 AM 69.80 59.90 53.24 76.46 52.70 55.0 Not Reported 2.91 W 2.91 W 4.47 SW x x Other     x x x x x 1.24 Clear
04/18/2019 10:36 AM 70.16 59.90 53.06 76.46 52.70 54.0 Not Reported 2.91 W 3.13 NW 4.47 SW x x Other     x x x x x 1.24 Clear
04/18/2019 10:37 AM 69.98 59.36 51.98 76.46 52.70 52.0 Not Reported 3.13 W 2.91 W 4.25 SW x x Other     x x x x x 1.24 Clear
04/18/2019 10:38 AM 69.80 59.36 52.16 76.46 52.70 53.0 Not Reported 3.13 W 2.68 W 6.26 W x x Other     x x x x x 1.24 Clear
04/18/2019 10:39 AM 69.80 59.18 51.98 76.46 52.70 53.0 Not Reported 3.13 W 2.46 SW 6.26 W x x Other     x x x x x 1.24 Clear
04/18/2019 10:40 AM 69.80 59.72 52.88 76.46 52.70 55.0 Not Reported 2.91 SW 1.79 SW 6.26 W x x Other     x x x x x 1.24 Clear
04/18/2019 10:41 AM 70.16 59.72 52.88 76.46 52.70 54.0 Not Reported 2.24 SW 1.79 W 6.26 W x x Other     x x x x x 1.24 Clear
04/18/2019 10:42 AM 70.52 60.08 53.24 76.46 52.70 54.0 Not Reported 2.01 SW 2.01 SW 6.26 W x x Other     x x x x x 1.24 Clear
04/18/2019 10:43 AM 70.88 60.26 53.06 76.46 52.70 53.0 Not Reported 2.46 SW 4.25 SW 6.26 W x x Other     x x x x x 1.24 Clear
04/18/2019 10:44 AM 71.06 60.44 53.42 76.46 52.70 54.0 Not Reported 3.36 SW 3.58 SW 6.26 W x x Other     x x x x x 1.24 Clear
04/18/2019 10:45 AM 71.24 60.44 53.24 76.46 52.70 53.0 Not Reported 3.13 SW 2.68 W 6.26 W x x Other     x x x x x 1.24 Clear
04/18/2019 10:46 AM 71.42 59.36 51.08 76.46 52.70 48.0 Not Reported 2.46 SW 2.91 W 6.26 W x x Other     x x x x x 1.24 Clear
04/18/2019 10:47 AM 71.06 59.00 50.54 76.46 52.70 48.0 Not Reported 2.68 W